GFSFLT1_925_temp_003.txt.gz
Temp
13 13 14 14 15 15 16 17 18 17 15 15 16 17 16 15 15 15 15 15 14 14 13 12 12 12 11 10 10 9 9 8
13 12 13 14 15 16 17 17 17 16 16 16 17 16 15 15 15 15 14 13 13 12 12 11 11 11 11 11 10 9 9 7
13 13 14 15 15 17 17 17 16 16 16 16 16 16 15 14 14 13 12 12 11 11 11 11 10 10 9 9 9 9 8 6
15 14 14 14 15 17 16 16 16 16 16 16 16 15 14 13 12 11 11 11 11 11 11 10 10 10 9 8 7 7 8 6
15 14 14 14 16 16 16 15 15 15 15 15 14 13 12 11 11 11 11 11 11 11 10 10 9 8 7 6 6 5 6 6
16 15 15 14 15 15 15 15 14 13 13 13 13 12 12 12 11 11 10 10 10 10 10 9 8 7 6 5 5 5 4 5
16 15 14 13 14 14 14 14 12 12 12 11 11 10 9 9 9 9 9 10 10 10 9 8 7 6 5 5 5 4 4 3
15 15 15 12 12 12 11 11 10 10 10 10 10 10 9 9 9 8 8 8 8 8 8 7 5 5 5 4 4 4 3 3
15 13 12 11 10 10 10 9 9 10 10 10 10 10 9 9 8 7 7 6 6 7 6 5 4 4 4 3 3 3 3 3
14 12 11 10 10 9 10 11 10 10 10 9 9 9 8 8 7 7 6 6 6 6 5 4 4 4 3 3 3 3 2 2
12 11 10 9 9 8 9 9 10 9 9 9 9 8 8 8 7 6 6 6 5 4 4 4 5 4 3 3 3 2 3 2
11 10 9 8 8 8 10 10 9 9 9 9 8 8 7 7 6 5 5 5 4 4 4 4 4 3 3 3 3 3 3 1
11 9 9 8 8 8 10 9 9 9 8 8 7 7 6 5 5 4 4 3 3 3 3 3 2 3 3 4 3 3 2 1
10 9 9 9 8 10 10 10 9 8 7 7 7 6 5 4 4 3 3 2 2 1 2 2 2 2 3 3 2 1 1 -0
10 10 9 9 9 10 10 9 8 8 7 7 6 5 4 4 3 3 2 2 1 2 2 2 2 2 3 2 1 -0 -1 -1
10 9 9 9 8 9 9 8 8 7 7 6 5 5 4 4 3 3 2 2 2 2 2 2 2 2 1 0 -1 -1 -2 -2
10 9 9 8 8 8 9 8 7 7 6 5 5 4 4 4 3 2 2 2 2 1 1 2 1 0 -1 -1 -1 -3 -4 -4
10 9 9 9 8 9 8 8 7 7 6 5 5 4 4 3 3 1 1 1 1 1 1 0 -1 -1 -1 -2 -2 -4 -5 -5
10 10 9 8 8 9 8 8 7 6 5 5 5 5 4 3 3 1 1 1 0 0 0 0 -0 -2 -2 -3 -3 -5 -6 -6

GFSFLT1_925_temp_006.txt.gz
Temp
21 21 22 21 20 19 17 18 18 17 17 16 16 16 15 15 14 14 13 13 13 14 13 12 13 13 13 13 12 12 12 12
19 19 19 20 19 18 18 17 17 18 18 18 17 17 16 15 14 12 12 12 12 12 13 13 12 13 12 11 12 12 12 11
19 18 18 19 18 18 18 18 18 18 18 17 17 17 15 14 13 12 12 12 12 13 12 12 12 12 12 11 10 11 12 10
20 19 19 19 18 18 18 18 18 17 16 16 15 15 15 15 14 14 12 12 12 12 12 11 11 11 11 10 10 9 10 10
21 20 19 19 18 18 18 17 16 14 15 15 15 16 16 13 13 13 12 11 11 11 11 11 10 10 10 10 9 8 8 9
21 20 20 19 17 17 16 15 14 14 14 14 15 14 13 13 12 12 12 12 11 11 11 10 10 10 9 8 7 7 7 7
21 20 19 18 16 15 15 14 14 13 13 12 12 12 12 12 11 11 11 11 11 11 10 9 9 9 8 7 6 6 6 6
21 19 19 17 15 14 14 14 13 12 12 12 11 11 11 11 10 10 9 10 9 9 8 8 8 8 6 5 5 5 5 5
20 20 19 17 15 14 14 14 13 12 11 11 11 10 10 10 9 8 8 8 8 7 7 7 7 6 5 4 5 5 5 5
20 19 17 16 14 13 13 13 12 11 11 10 10 9 8 8 8 8 8 7 7 7 6 6 6 5 4 5 5 5 5 4
19 17 15 15 14 13 12 13 12 10 10 10 9 8 8 8 8 7 7 6 6 6 6 6 5 5 5 5 5 5 4 4
18 16 15 14 13 12 12 12 10 10 10 9 9 8 8 7 7 6 6 5 5 5 6 5 5 5 5 4 5 4 4 4
18 16 14 13 13 12 12 11 11 10 9 9 8 8 7 7 6 6 5 5 5 4 4 4 5 4 4 4 4 4 4 4
17 15 14 13 13 12 11 11 11 10 9 9 9 8 7 6 6 5 5 4 4 4 4 4 4 4 4 4 4 4 3 3
16 15 14 13 13 12 12 10 10 10 9 9 8 7 7 6 5 5 4 4 4 4 4 4 3 3 3 3 3 3 2 2
16 15 15 14 13 12 11 11 10 9 9 9 8 7 6 6 5 5 4 4 4 4 3 3 3 3 2 2 2 1 1 1
16 15 15 14 13 12 11 10 10 9 9 8 7 7 6 5 5 4 4 4 4 4 4 3 3 2 -0 -0 0 0 0 -0
16 16 15 14 12 12 11 10 9 8 8 7 7 6 5 5 5 5 4 4 4 4 4 3 2 1 -1 -1 -1 -1 -1 -1
17 15 14 12 12 11 11 10 9 8 8 7 7 6 6 6 5 5 4 4 4 4 3 3 2 -0 -2 -2 -2 -2 -2 -2

GFSFLT1_925_temp_009.txt.gz
Temp
25 25 25 24 22 21 20 19 19 18 20 18 17 18 17 17 17 16 16 16 15 15 16 14 14 15 15 14 13 13 14 14
24 25 24 24 22 21 20 20 19 20 20 20 19 19 18 17 16 15 15 14 14 14 15 15 14 14 14 13 13 13 13 13
24 23 23 23 22 21 20 20 20 20 20 20 20 19 18 17 16 14 14 14 14 14 14 13 13 13 13 13 13 12 12 12
24 23 22 22 21 21 21 20 20 20 19 18 18 17 17 18 17 16 15 13 13 13 13 13 12 12 12 12 12 11 11 11
24 23 22 21 21 21 21 20 19 17 18 18 18 18 18 16 15 15 14 14 13 13 13 12 12 11 11 11 12 10 9 10
24 23 22 22 21 20 20 19 18 17 17 17 17 16 16 15 14 13 13 13 12 12 12 11 11 11 11 10 10 9 9 8
24 23 22 20 20 19 18 18 17 16 15 15 14 14 14 14 13 13 12 12 11 11 10 10 10 10 10 10 9 8 7 6
24 23 22 20 18 17 17 17 16 15 14 14 13 13 12 13 12 11 11 11 10 10 9 9 9 10 9 8 7 5 5 6
24 23 22 20 18 17 17 17 16 14 14 13 12 12 12 12 11 10 10 10 9 9 9 8 9 8 7 6 5 5 5 5
23 22 21 20 18 17 17 17 15 14 13 12 11 11 11 10 10 9 9 9 8 8 8 8 7 7 6 5 6 6 6 6
23 22 21 20 18 17 16 16 15 14 12 11 11 11 10 10 9 9 8 8 8 7 7 8 7 7 6 6 6 6 5 6
23 22 20 19 17 16 16 15 14 13 12 12 11 11 10 10 9 8 8 7 7 7 7 7 7 7 6 6 6 5 6 5
24 21 19 18 17 16 15 15 14 13 12 11 11 10 10 10 9 8 7 7 7 6 6 6 6 6 6 6 5 5 5 5
24 21 19 18 16 16 15 14 14 13 11 11 11 11 10 9 8 8 7 7 6 6 6 6 6 5 5 5 5 5 4 3
23 21 19 17 16 15 15 14 13 12 12 12 12 11 10 9 8 7 7 6 6 6 6 6 5 5 5 5 5 4 3 3
22 20 19 17 16 15 14 14 12 12 12 12 11 10 9 8 8 7 6 6 6 6 6 5 4 4 4 3 2 3 3 2
21 20 19 17 16 15 15 13 12 12 11 11 10 10 9 8 7 7 6 6 6 6 6 5 4 4 3 2 1 1 2 2
21 20 18 18 17 15 14 13 12 11 11 11 10 9 8 8 7 7 7 6 6 6 6 5 4 4 1 0 -1 -1 1 1
21 20 18 18 17 15 14 13 12 11 10 10 9 9 8 8 7 7 7 7 6 6 5 5 4 2 1 -0 -1 -1 -0 -0

GFSFLT1_925_temp_012.txt.gz
Temp
26 25 25 23 21 21 20 19 18 18 18 18 17 17 17 17 17 16 16 15 15 15 15 15 14 15 14 13 13 13 13 13
26 26 25 23 22 21 20 19 18 19 19 19 18 18 18 16 15 15 15 15 15 14 14 14 14 13 13 13 13 12 12 12
26 26 25 23 22 21 20 20 19 20 21 20 20 18 17 17 15 15 14 14 14 14 13 13 13 12 12 12 12 12 11 11
25 25 24 24 22 21 21 20 20 21 20 18 18 18 17 17 16 15 14 14 14 13 13 13 12 12 12 11 11 11 10 10
25 24 24 22 21 21 21 21 20 19 19 19 18 18 16 16 15 14 14 13 13 12 12 12 11 11 11 11 11 10 10 9
24 24 21 21 21 21 21 20 19 18 18 17 17 16 16 15 14 13 13 12 12 12 11 10 10 10 10 10 10 9 8 7
25 22 21 21 21 21 19 19 18 17 16 16 15 15 14 13 13 12 12 12 11 11 10 9 9 9 10 9 8 7 6 6
24 22 22 21 20 19 18 18 17 16 14 14 13 13 13 12 12 11 11 11 10 10 9 9 8 9 8 8 7 6 6 5
24 24 22 20 19 18 18 17 16 15 14 14 13 13 13 12 11 10 10 10 9 9 9 8 8 8 8 7 6 6 5 5
24 23 22 20 19 18 18 17 16 14 14 13 12 12 12 11 10 10 10 9 9 8 8 8 8 7 7 6 6 6 6 5
23 23 22 20 19 18 18 17 16 14 13 12 12 11 11 10 10 9 9 8 8 8 7 7 7 7 7 6 6 6 6 5
23 23 22 20 19 18 17 17 16 14 13 12 12 11 10 10 10 9 8 8 7 7 7 7 7 7 7 6 6 6 6 5
24 23 22 21 19 18 17 17 16 14 13 12 11 11 11 10 10 9 8 7 7 7 6 6 6 6 6 5 5 5 5 3
24 23 22 20 19 18 17 16 15 14 13 12 11 11 10 10 10 9 8 7 7 6 6 6 6 6 5 5 5 5 4 3
24 23 21 20 19 17 16 16 15 14 13 12 12 11 11 10 9 8 8 7 6 6 6 6 6 5 5 5 5 4 3 3
24 23 21 20 18 17 16 15 14 14 13 13 13 11 10 9 9 8 7 7 6 6 6 6 6 5 4 4 3 3 2 2
25 23 21 20 19 17 16 15 14 13 12 12 12 11 10 9 8 7 7 7 7 6 6 6 6 5 4 3 3 2 1 1
23 23 21 20 19 17 16 15 14 13 12 12 11 10 9 8 7 7 7 7 7 7 6 6 6 5 4 2 2 1 0 0
22 21 21 20 19 18 16 15 13 12 12 11 9 8 8 8 8 8 8 8 7 7 6 6 5 4 3 2 1 0 -0 -0

GFSFLT1_925_temp_015.txt.gz
Temp
23 21 20 20 20 19 19 19 19 18 18 17 17 17 16 16 16 15 15 15 15 15 14 14 13 13 13 13 12 12 12 12
24 22 20 20 20 19 19 19 19 18 17 17 17 16 16 16 16 15 15 14 14 14 14 14 13 13 12 12 12 11 11 11
23 21 20 20 20 19 19 19 19 18 18 18 17 17 17 16 15 14 14 14 14 13 13 12 12 12 12 11 11 11 11 10
21 21 19 19 20 19 19 19 19 19 18 18 17 17 16 15 14 14 13 13 13 13 12 12 12 11 11 10 10 10 10 9
21 20 19 19 19 20 19 20 19 18 19 18 17 16 15 14 14 13 13 13 13 12 12 11 11 10 10 10 10 9 9 7
20 20 20 20 20 20 20 19 19 19 18 18 17 16 14 14 14 14 13 13 12 11 11 10 10 9 9 9 8 8 7 7
20 21 21 20 20 20 19 19 18 18 17 17 16 15 14 14 13 13 12 11 11 10 10 9 8 8 8 8 7 7 6 6
18 18 18 19 19 18 18 18 17 17 16 16 15 15 15 14 13 12 11 11 10 10 9 8 8 8 8 7 7 6 6 5
18 19 20 18 18 18 18 17 15 15 15 15 14 14 14 13 12 11 10 10 9 9 8 8 8 7 7 7 7 6 6 5
19 19 18 17 18 18 17 16 15 14 14 14 13 13 12 12 11 10 10 9 9 8 8 7 7 7 7 7 7 6 6 5
17 18 17 17 18 18 17 16 15 14 14 13 13 12 12 11 10 10 9 8 8 7 7 7 7 7 7 6 6 6 6 5
17 18 17 18 18 18 18 16 15 14 13 13 12 11 11 10 10 9 9 8 7 7 7 6 6 6 6 6 6 5 5 4
18 18 17 17 17 17 17 16 15 14 13 12 11 11 10 10 9 9 8 8 7 7 6 6 6 6 6 5 5 5 4 4
19 18 17 17 16 16 17 16 15 14 13 12 11 11 10 10 10 9 8 8 7 7 6 6 6 6 6 5 5 4 4 3
19 19 17 17 16 16 16 16 15 14 13 12 12 11 11 10 10 9 8 7 7 6 6 6 6 6 5 5 4 4 3 3
19 17 15 17 16 15 15 16 15 14 13 12 12 11 11 10 9 8 8 7 7 7 6 6 6 6 5 4 4 4 3 3
19 18 16 16 15 15 15 15 15 14 13 12 12 11 10 9 8 7 6 6 6 7 6 6 6 6 5 4 3 3 2 2
19 18 16 16 16 16 16 15 14 14 13 12 10 10 9 7 6 5 6 6 7 7 7 6 6 6 5 4 3 2 2 1
18 19 19 18 18 17 16 15 14 13 12 9 8 8 7 6 5 6 7 7 6 6 7 6 6 5 4 3 2 2 1 -0

GFSFLT1_925_temp_018.txt.gz
Temp
19 18 18 19 19 19 18 18 18 18 18 17 16 16 16 16 16 15 15 15 15 15 14 14 13 13 13 12 12 12 11 11
19 19 18 19 19 19 18 18 18 18 17 16 16 16 15 15 15 15 15 15 15 14 14 14 13 13 12 12 11 11 11 10
19 18 18 18 19 18 18 18 18 18 18 17 17 16 15 16 15 14 14 14 14 14 14 13 12 12 11 11 10 10 10 9
19 18 17 18 17 18 18 18 18 18 17 17 16 16 15 14 14 14 14 14 14 14 13 12 11 11 10 10 9 9 9 7
19 18 17 17 17 18 19 19 18 18 17 17 16 15 14 14 14 13 13 13 13 12 12 11 10 10 9 9 9 9 8 7
19 18 18 17 18 18 19 18 18 18 17 17 17 16 15 14 13 13 13 12 12 11 11 10 9 9 8 8 8 7 7 6
17 18 18 17 18 18 17 18 18 18 18 17 17 16 14 13 13 13 12 11 11 10 10 9 8 8 8 7 7 7 6 6
16 17 17 17 17 17 17 18 17 17 17 17 16 15 14 14 13 13 11 10 9 9 9 8 8 7 7 7 7 6 6 5
18 17 17 16 16 17 17 18 17 16 16 16 15 14 14 13 13 11 10 10 9 8 8 8 7 7 7 7 7 6 6 5
17 16 17 16 16 16 16 16 16 15 15 14 14 13 13 13 11 11 10 9 9 8 7 7 7 7 7 6 6 6 6 5
16 16 16 16 16 16 16 16 15 14 14 13 13 13 12 12 11 10 9 9 8 8 7 7 7 6 6 6 6 6 5 5
16 16 16 16 16 15 16 15 15 14 13 13 13 12 12 11 11 10 9 8 8 8 7 7 6 6 6 6 5 5 5 4
17 16 15 15 15 15 16 16 15 15 14 13 13 12 11 10 10 9 9 8 8 7 7 6 6 6 6 5 5 5 4 4
15 15 15 15 15 15 14 14 14 14 13 13 12 11 11 10 10 9 9 8 8 7 7 6 6 6 6 5 5 5 4 3
16 15 16 16 16 15 14 12 12 12 12 12 12 11 11 10 10 9 9 8 7 7 7 6 6 6 6 5 5 4 4 3
18 16 14 16 15 15 14 12 13 13 12 12 12 11 11 10 9 8 8 7 7 7 7 6 6 6 6 5 5 4 3 3
19 18 14 15 15 14 14 13 13 12 12 12 11 11 10 9 7 7 6 6 6 6 7 6 6 6 6 5 5 4 3 2
16 17 14 14 14 14 14 14 13 12 11 11 10 9 8 7 6 5 5 5 5 6 5 6 6 6 6 5 4 3 2 1
14 14 16 16 16 15 15 13 11 10 10 9 7 7 6 5 4 4 4 4 5 4 5 5 6 6 5 5 4 2 2 1

GFSFLT1_925_temp_021.txt.gz
Temp
17 17 17 17 18 18 18 18 18 17 17 17 16 16 16 16 15 15 15 15 15 15 15 14 14 13 12 12 12 11 11 10
17 17 17 17 17 18 18 18 17 17 16 16 16 16 15 15 15 15 15 15 15 15 15 13 13 12 12 11 11 11 10 10
18 17 17 17 18 18 18 18 17 17 17 17 17 16 15 15 15 14 15 15 14 14 14 13 13 12 12 11 10 10 9 9
18 17 17 17 16 17 18 18 17 17 17 17 16 15 14 14 14 14 14 14 14 13 13 12 12 11 11 10 9 9 9 7
18 17 16 16 16 17 18 18 17 17 17 17 16 15 13 13 13 13 13 13 12 12 12 11 11 11 10 9 9 9 8 7
18 17 17 17 16 16 17 17 17 17 17 17 16 14 14 14 13 13 12 12 11 11 11 10 10 10 9 8 8 7 7 7
17 18 17 17 16 16 16 16 16 17 17 17 16 15 14 14 13 13 12 11 11 10 9 9 8 8 8 8 7 7 7 6
15 16 16 16 16 16 16 16 16 17 16 16 16 15 14 14 13 12 11 10 9 9 9 9 8 7 7 7 7 6 6 6
16 16 16 16 16 15 16 16 16 16 16 16 16 15 14 13 13 12 11 10 9 9 8 7 7 7 6 6 6 5 5 5
16 16 16 16 16 15 16 16 15 16 15 14 14 14 14 13 13 11 11 10 9 8 7 7 7 7 6 6 6 5 5 5
15 16 16 16 16 15 15 16 16 17 16 15 14 13 13 13 12 11 11 10 8 8 7 7 7 6 6 6 6 6 5 5
15 16 16 15 15 15 15 15 15 15 14 14 14 13 13 12 11 11 9 9 8 8 7 7 7 6 6 6 5 5 5 4
16 16 14 14 14 14 14 14 14 14 14 13 13 12 12 11 11 10 9 9 8 8 8 7 7 6 6 6 5 5 5 5
14 13 13 14 14 13 13 13 12 11 11 11 11 11 11 11 10 10 9 9 8 8 7 7 6 6 6 6 5 5 5 5
14 13 13 14 14 13 13 12 11 10 9 10 11 11 11 11 10 10 9 9 8 8 7 7 6 6 6 6 5 5 5 4
14 13 12 14 14 14 13 12 11 11 10 10 10 11 11 10 10 9 9 8 7 7 6 5 6 6 6 6 6 5 4 4
17 15 14 14 14 14 14 12 11 11 11 10 10 10 9 9 9 8 7 6 6 5 5 5 5 6 6 6 6 5 4 3
13 13 14 15 15 15 14 13 12 12 11 9 9 9 8 8 7 5 5 5 5 5 4 4 5 5 6 6 5 5 3 3
10 9 11 13 14 13 12 11 10 9 8 8 7 7 6 5 5 5 5 4 4 3 3 4 4 5 5 5 5 4 3 2

GFSFLT1_925_temp_024.txt.gz
Temp
16 16 16 16 17 17 17 17 17 17 16 16 16 16 16 16 16 15 15 15 15 15 15 14 13 13 13 12 11 11 10 10
16 16 17 17 16 17 17 17 17 17 16 15 15 16 15 15 15 15 15 15 15 14 14 13 13 12 11 11 11 10 9 9
16 16 16 17 17 17 17 17 17 17 16 16 15 16 15 15 15 14 14 14 14 13 13 12 12 11 11 10 10 9 8 8
16 16 16 16 17 17 17 18 17 16 16 16 16 15 14 14 14 14 13 13 13 13 12 12 11 11 10 10 9 9 8 7
16 16 16 16 16 17 17 17 17 16 16 16 16 15 13 14 14 14 13 12 12 12 12 11 11 10 10 9 9 9 8 7
16 16 17 16 17 16 17 17 16 16 16 16 16 15 15 14 13 13 12 12 11 11 11 10 10 10 10 9 8 8 7 7
16 17 17 16 16 17 16 16 16 16 16 16 16 16 14 14 12 12 11 11 11 10 10 10 10 9 8 8 7 7 7 6
14 15 15 15 16 16 16 16 15 15 15 15 15 15 15 15 13 12 11 10 10 10 9 9 9 8 7 7 7 6 6 6
16 16 16 16 15 15 15 15 15 15 15 15 14 14 15 14 13 13 12 11 10 10 10 10 8 8 8 7 6 6 6 5
15 15 16 16 15 15 16 15 15 15 15 14 14 14 14 14 13 12 12 11 10 10 9 9 8 8 7 7 6 6 5 5
14 14 15 15 15 15 15 15 16 17 15 14 14 14 13 12 12 11 11 10 9 9 9 8 7 7 7 6 6 5 5 5
13 13 15 15 15 16 16 15 15 15 14 14 13 12 11 11 11 11 11 10 9 9 9 8 7 6 6 6 6 5 5 5
13 13 14 15 15 14 14 14 14 14 15 13 11 11 10 10 11 11 11 10 9 9 8 7 7 6 6 6 5 5 5 5
13 13 12 13 12 13 13 14 14 14 13 12 11 10 11 11 11 11 10 9 9 8 7 7 6 6 6 5 5 5 5 5
13 12 12 12 13 13 13 13 12 12 11 11 10 10 10 11 10 9 9 9 8 8 7 7 6 5 5 6 6 6 6 5
14 13 12 13 13 13 13 13 12 11 10 9 8 9 10 9 9 9 9 8 8 7 6 6 5 4 5 5 5 5 5 5
12 12 13 13 13 13 13 13 12 11 10 10 9 9 8 8 8 8 8 7 6 5 5 4 4 4 5 5 5 4 4 4
10 9 9 11 11 12 12 11 10 9 8 8 8 8 7 7 8 7 6 5 5 4 4 4 4 4 4 5 5 5 5 4
7 6 7 9 11 11 11 10 9 8 8 7 7 7 6 6 5 5 4 4 4 3 3 3 3 4 4 4 4 4 4 4

GFSFLT1_925_temp_027.txt.gz
Temp
17 16 16 15 15 15 15 15 16 15 16 16 16 16 16 15 15 16 16 16 15 15 15 15 14 13 13 12 12 11 10 9
17 16 16 16 15 15 15 15 16 15 15 15 15 15 15 15 15 15 15 15 14 15 14 14 13 13 13 12 11 10 8 8
17 16 16 16 16 15 15 15 16 16 16 16 15 15 15 14 14 14 14 14 14 14 14 13 13 13 12 11 10 9 8 8
18 17 16 16 16 16 16 16 17 17 17 16 15 14 14 13 13 14 13 13 14 13 13 13 12 12 11 10 10 9 9 7
20 18 17 16 16 16 16 15 16 16 17 16 15 14 14 13 14 13 13 13 13 13 12 12 12 11 11 10 9 9 8 8
20 19 19 17 16 16 16 15 16 16 16 15 15 15 14 14 14 13 13 12 12 12 12 12 11 11 10 9 9 9 9 8
20 19 19 18 16 16 16 15 15 14 16 16 15 15 15 13 13 12 12 12 11 11 11 11 11 10 9 9 9 8 8 7
20 19 18 18 16 15 15 15 15 14 15 15 15 15 15 14 14 13 12 12 11 11 10 10 10 9 8 8 8 7 7 7
20 20 19 18 16 16 15 15 15 14 14 15 15 14 14 13 13 12 12 11 10 10 10 10 9 9 8 8 7 7 7 6
19 20 19 18 17 16 16 15 15 14 14 15 15 14 14 13 12 12 11 11 10 10 9 9 9 7 8 7 6 7 6 6
17 18 18 17 17 16 15 15 16 15 14 14 14 13 13 11 11 11 10 9 10 9 9 8 7 7 7 7 7 7 6 5
18 17 17 17 16 16 15 15 15 15 13 14 14 13 12 11 10 9 9 10 9 8 9 7 7 7 6 7 7 6 6 5
18 17 16 15 15 15 15 14 14 13 14 14 12 12 10 10 9 10 10 10 8 9 8 8 7 7 7 6 6 6 5 4
17 16 16 15 14 13 13 13 14 14 13 12 10 9 8 8 8 8 8 8 8 8 8 7 7 6 6 6 5 5 5 5
16 16 15 14 14 14 13 12 13 13 12 10 9 9 8 7 8 7 7 7 8 8 7 6 6 6 5 4 3 4 4 5
16 16 15 14 14 13 13 13 12 12 10 9 9 8 8 7 7 7 7 8 8 8 7 6 5 4 4 4 3 3 4 4
14 13 13 13 13 13 13 12 12 11 9 9 8 7 7 7 7 7 7 7 7 6 5 5 4 3 4 3 3 3 4 4
11 11 10 9 10 10 11 10 10 9 8 8 7 7 7 7 7 7 6 6 5 4 4 3 2 3 4 2 3 3 3 3
9 9 8 7 7 7 8 8 7 7 6 6 6 6 6 5 5 4 4 4 4 3 2 2 3 3 2 1 2 3 2 2

GFSFLT1_925_temp_030.txt.gz
Temp
19 19 19 18 18 17 17 16 16 16 17 17 18 17 17 16 16 16 15 16 15 15 15 14 14 15 14 14 14 13 14 14
20 20 19 19 19 18 18 17 17 17 17 17 17 17 17 16 16 16 15 16 15 15 15 13 14 15 15 13 13 13 12 12
22 21 20 19 19 18 18 18 18 18 18 18 18 18 18 16 15 15 15 15 15 14 14 14 14 14 13 13 12 13 13 11
23 22 21 20 19 19 19 19 18 18 18 18 17 17 15 15 14 14 14 14 14 14 13 14 13 13 13 12 12 12 13 11
25 23 22 21 20 20 19 19 19 18 18 19 17 18 18 16 14 14 15 13 14 14 13 13 12 13 13 12 12 12 11 11
26 25 24 22 21 20 19 19 19 19 18 18 17 18 19 18 15 15 14 12 12 13 12 12 12 12 12 11 10 9 10 11
26 25 24 24 22 21 20 19 19 19 18 17 18 18 18 16 15 13 12 10 11 11 11 11 11 11 10 10 9 9 10 9
26 26 25 24 23 21 20 20 20 19 18 17 17 17 17 15 14 12 11 11 11 11 10 10 10 10 9 9 9 7 8 9
27 27 26 25 23 22 20 20 20 19 18 17 16 16 15 14 13 12 12 11 10 9 9 8 9 9 9 9 7 7 8 8
27 27 26 24 23 22 20 20 19 20 18 17 16 15 14 13 12 12 12 10 10 9 10 8 8 8 9 8 7 8 7 7
25 25 25 24 23 22 20 20 20 20 19 17 16 16 14 12 11 11 10 10 9 8 7 8 7 7 7 6 7 7 7 7
24 23 23 23 22 21 20 19 19 19 19 18 17 16 13 11 11 10 9 10 9 8 8 7 6 7 6 7 7 8 6 6
24 23 22 21 21 21 20 20 20 20 19 18 17 13 12 12 11 11 10 10 7 7 7 6 7 7 7 6 7 6 5 5
24 23 22 21 21 20 19 18 19 19 17 15 15 14 12 11 10 9 8 7 7 6 6 6 7 6 6 6 5 5 4 4
24 23 22 21 20 19 18 17 17 16 15 15 14 13 12 12 10 9 8 7 5 5 6 6 6 6 6 4 4 4 4 5
21 22 21 20 18 17 17 16 14 14 14 14 14 12 12 11 10 10 9 8 6 5 6 6 5 5 4 4 3 3 4 5
19 19 19 18 18 18 16 15 13 13 13 13 12 11 10 10 9 7 5 5 5 6 6 5 4 3 3 3 3 3 4 4
17 17 16 16 15 15 14 13 12 12 12 11 10 10 9 8 7 6 5 5 5 5 4 4 3 4 4 2 2 2 2 3
16 15 14 14 13 12 12 12 11 11 10 9 9 9 8 7 6 5 5 5 5 4 3 4 3 3 3 2 2 2 2 3

GFSFLT1_925_temp_033.txt.gz
Temp
22 20 19 18 17 16 17 16 16 16 16 17 18 18 18 19 18 18 18 18 17 17 18 17 16 17 17 17 16 16 16 16
22 22 20 20 19 18 18 18 18 17 17 18 19 19 19 19 17 18 18 18 17 17 17 16 16 17 17 16 15 15 15 14
23 22 22 21 20 19 19 19 19 19 19 20 20 20 20 20 17 18 18 17 17 16 17 16 16 17 16 15 15 15 15 14
25 23 22 21 21 21 20 20 20 20 20 20 20 20 20 20 18 17 17 17 17 17 16 16 16 16 15 14 14 15 15 14
26 25 23 22 22 21 21 21 21 21 20 21 20 20 20 20 19 18 17 16 16 17 16 16 16 15 15 14 14 14 14 14
28 26 25 23 22 22 21 21 21 21 20 20 21 20 20 20 19 17 16 17 16 16 16 15 15 14 14 14 14 13 12 11
29 28 26 25 24 23 22 22 22 22 21 20 20 20 20 21 20 18 17 16 15 15 15 14 13 13 13 13 12 10 10 10
29 29 28 27 25 24 23 22 22 22 21 20 20 20 20 20 20 17 17 15 13 12 12 11 11 11 11 10 10 10 9 9
29 29 29 28 27 25 23 23 22 22 21 21 20 19 19 19 18 17 15 13 12 12 13 9 9 10 9 8 9 9 8 7
30 30 29 28 28 26 24 23 23 23 22 21 20 18 18 18 17 16 13 13 12 12 10 9 10 9 7 8 7 7 7 8
29 29 29 29 28 27 25 24 23 23 22 21 19 19 18 17 16 13 12 11 10 10 9 8 8 7 8 6 6 7 8 8
27 27 27 28 27 26 25 24 23 23 22 21 19 18 18 16 14 12 11 10 10 11 9 8 7 7 6 6 6 7 8 8
28 27 26 26 25 25 25 24 23 23 22 21 19 17 16 15 12 11 11 11 11 10 10 8 6 6 6 6 6 7 8 6
27 26 25 25 24 24 24 22 22 22 22 21 20 15 14 13 12 12 11 10 10 10 8 6 5 6 5 6 6 7 5 5
28 27 25 24 23 22 22 21 21 21 20 19 18 16 14 13 12 11 9 9 8 7 5 5 6 5 6 6 6 4 4 5
26 26 25 23 22 21 21 19 18 18 18 18 16 15 14 13 12 11 9 8 7 6 5 5 6 6 6 5 4 4 5 3
24 24 23 22 21 20 18 17 16 16 16 16 14 14 13 13 12 10 9 8 7 6 5 6 6 5 5 4 4 4 3 3
22 22 21 20 19 18 17 16 16 15 15 14 13 12 11 10 10 9 8 7 6 5 5 5 5 4 4 4 3 3 3 2
20 19 18 18 17 16 16 15 14 14 13 12 12 11 10 10 9 8 6 5 5 5 5 5 6 5 4 4 4 3 2 2

GFSFLT1_925_temp_036.txt.gz
Temp
19 18 16 15 14 14 14 14 15 15 15 16 17 17 17 18 19 18 18 17 17 17 18 18 17 17 17 17 17 17 16 16
20 19 17 15 15 15 15 15 16 16 15 15 17 18 18 18 18 18 18 18 17 17 17 17 17 17 17 17 16 16 16 16
21 20 19 16 16 16 16 16 16 16 16 16 17 18 18 18 18 18 18 16 18 17 17 17 16 16 17 16 16 15 15 15
22 21 20 19 17 17 18 17 16 16 17 18 18 19 19 19 19 18 18 17 18 17 17 17 16 16 17 16 15 15 15 14
23 22 21 20 19 19 19 19 19 18 19 19 20 20 20 20 19 18 18 18 17 17 17 16 16 16 16 15 14 14 15 14
25 23 23 22 21 20 20 20 20 20 19 20 20 20 20 20 20 19 18 17 17 16 17 17 16 16 15 15 14 14 14 13
26 25 24 23 22 21 21 21 21 21 21 20 20 20 20 20 20 19 18 18 17 16 16 16 15 15 14 12 10 12 11 11
27 26 25 24 23 22 21 21 21 21 21 21 20 20 20 20 20 19 17 16 16 15 15 15 15 14 13 11 9 10 10 10
27 27 26 25 24 23 22 22 21 22 22 21 20 20 20 19 19 19 18 16 16 15 15 15 14 12 11 10 11 10 10 9
28 28 28 27 25 24 23 23 22 22 22 22 21 20 19 19 16 18 17 15 15 15 14 13 11 10 10 10 10 9 8 7
29 28 28 28 27 25 24 23 23 23 23 22 21 20 19 18 17 17 15 14 14 13 13 11 9 9 9 10 9 8 7 7
28 28 28 29 28 28 25 24 24 24 23 22 21 20 19 17 16 16 14 13 12 11 10 10 9 8 8 8 8 7 6 7
28 27 27 27 27 28 26 25 24 24 24 21 20 20 18 18 16 15 14 13 11 11 10 10 9 7 7 7 7 6 6 6
27 26 26 26 26 26 26 25 24 24 24 22 21 19 17 15 14 13 12 12 11 10 10 9 8 6 6 7 6 6 5 5
28 26 25 25 25 24 24 23 23 22 22 20 17 14 14 14 13 12 11 11 10 10 10 9 7 6 6 6 5 5 5 5
27 26 25 24 23 23 22 21 20 19 19 17 15 14 14 13 12 11 11 10 9 8 7 7 6 6 5 5 5 5 5 6
26 26 25 23 22 21 19 18 18 18 18 16 15 15 14 13 11 10 9 8 7 6 6 5 5 5 6 6 5 5 5 4
25 24 23 22 20 19 17 17 17 16 15 14 14 13 12 11 10 9 8 8 7 6 5 5 5 6 5 5 5 4 4 3
23 21 21 19 18 17 17 16 15 15 14 13 12 11 11 10 9 8 7 6 5 5 5 5 5 5 5 5 4 3 3 3

GFSFLT1_925_temp_039.txt.gz
Temp
14 12 12 11 11 10 11 12 13 13 13 14 14 15 15 16 17 18 18 18 18 18 18 17 18 18 17 17 17 16 16 16
14 13 13 12 12 11 11 11 12 12 12 13 13 13 15 17 17 17 18 18 18 17 18 17 18 17 17 17 17 17 16 16
16 15 13 13 13 13 12 12 13 13 13 14 14 15 17 18 18 18 18 18 17 17 17 17 17 17 17 17 16 16 16 15
17 15 14 14 14 14 14 14 15 15 15 15 16 16 17 17 18 18 18 17 17 17 17 17 17 17 17 16 16 16 15 15
18 17 15 14 15 15 15 15 15 15 15 15 15 15 16 17 18 18 18 18 18 17 16 17 16 16 16 16 16 15 15 14
19 18 17 15 15 15 15 15 15 16 16 16 15 16 17 18 18 18 18 18 18 17 16 16 16 16 16 16 15 15 14 12
20 19 19 17 16 16 16 16 16 16 16 16 17 17 18 19 19 18 19 18 17 17 16 16 16 16 15 15 14 13 13 11
21 20 20 19 18 17 17 17 17 17 17 17 17 18 19 20 20 19 19 18 18 18 16 16 16 16 15 15 14 12 11 10
22 21 21 21 19 19 18 18 18 18 18 18 18 18 19 19 20 20 19 19 17 17 16 16 16 15 15 14 13 11 10 10
23 23 22 22 21 20 19 19 19 20 19 19 19 19 19 19 19 19 19 19 16 15 16 15 15 15 14 13 12 10 10 10
23 23 23 23 22 21 20 20 20 20 20 20 20 20 19 20 19 19 19 17 16 15 13 14 14 12 12 11 10 9 9 9
21 20 23 24 24 22 21 20 20 19 20 20 20 20 20 20 19 17 16 15 14 13 13 12 12 11 11 9 9 8 8 8
23 22 23 24 24 24 22 20 18 21 20 19 20 17 16 15 15 15 15 13 13 13 13 12 11 10 10 8 8 7 8 7
21 22 23 23 24 23 22 20 19 18 17 18 18 17 18 15 15 14 13 13 13 12 11 11 10 9 8 7 7 7 7 6
21 20 21 22 23 22 21 21 19 18 18 17 15 16 15 14 13 13 12 11 11 10 10 10 10 9 8 7 6 6 5 5
21 20 19 19 20 20 19 19 19 18 17 16 14 14 14 13 12 12 11 10 10 10 10 9 8 7 6 6 6 5 5 5
23 20 19 19 19 18 18 18 16 17 15 14 14 14 13 12 12 11 10 10 9 8 7 7 6 6 5 5 5 5 5 5
21 20 19 18 17 17 17 17 16 15 14 13 13 12 11 11 10 10 9 8 7 6 6 5 5 5 5 5 5 5 4 4
18 17 16 16 17 17 16 16 15 14 13 12 11 11 10 9 9 8 7 7 6 6 5 5 5 5 5 5 4 4 4 3

GFSFLT1_925_temp_042.txt.gz
Temp
12 12 11 11 11 11 11 11 12 13 13 13 15 15 16 18 18 18 17 17 17 18 17 17 17 17 17 17 17 16 16 16
12 11 11 10 11 10 11 11 12 12 12 13 12 14 16 17 18 18 17 17 17 17 17 17 17 17 17 17 17 16 16 16
12 11 11 11 10 10 10 11 12 12 12 12 13 14 15 16 17 17 17 17 18 17 17 17 17 17 17 17 17 16 16 15
13 12 11 11 10 10 10 11 11 12 12 12 13 13 15 15 16 17 17 17 17 17 17 17 17 17 17 17 17 16 15 14
14 13 12 11 11 11 11 11 11 12 12 13 13 13 14 14 15 16 17 17 17 17 17 17 17 17 17 17 16 16 16 15
15 14 13 13 12 12 12 12 12 12 13 13 13 14 15 15 16 17 18 18 18 17 17 17 17 16 17 16 16 15 16 15
16 15 14 13 13 13 13 13 13 14 14 14 14 14 14 15 16 16 17 18 18 18 17 17 16 16 15 15 15 15 15 15
17 16 15 14 14 14 14 14 14 14 14 14 14 15 15 15 16 16 16 16 17 18 17 16 16 15 15 15 14 14 14 14
18 17 16 15 15 14 14 14 15 15 15 15 15 15 15 15 16 16 16 17 18 18 17 16 16 15 15 14 14 14 14 13
19 18 18 17 16 15 15 15 15 15 15 15 15 15 15 15 16 16 16 18 19 17 18 17 16 14 13 13 14 14 13 12
20 20 19 19 18 17 16 16 16 16 16 16 16 16 16 16 16 17 16 17 16 15 15 16 15 14 12 12 12 12 11 10
21 20 20 20 19 18 17 16 17 17 17 17 17 17 17 16 15 15 15 14 15 15 14 14 13 12 11 11 11 11 10 9
20 20 21 21 20 20 19 18 17 17 17 17 17 17 17 15 15 15 14 14 14 13 12 12 12 12 11 10 10 9 8 7
19 18 19 19 20 21 20 19 18 18 18 18 17 18 17 16 16 15 14 13 14 13 12 11 11 11 10 9 8 8 7 8
20 18 18 19 21 21 21 19 19 18 17 17 18 17 16 16 15 14 14 14 12 12 11 11 11 10 9 9 8 7 7 6
19 19 18 17 18 19 21 20 19 18 16 16 17 17 15 14 13 13 13 13 12 12 11 11 10 9 9 8 7 6 6 6
20 19 18 17 16 16 17 18 17 17 16 15 14 13 13 12 12 12 11 11 10 10 9 9 8 8 7 7 6 6 6 5
19 19 18 17 16 16 15 15 14 13 13 12 12 11 11 11 11 11 10 9 8 8 8 7 6 6 6 5 5 5 5 4
18 18 16 16 16 15 14 14 13 12 11 11 11 10 9 9 9 8 8 8 9 7 6 6 6 5 5 5 5 4 4 3

GFSFLT1_925_temp_045.txt.gz
Temp
13 12 11 11 11 11 11 12 13 12 13 14 15 15 15 16 17 16 17 16 17 17 17 17 17 17 17 16 16 16 16 16
12 13 11 11 11 11 11 11 11 11 12 14 14 14 15 15 16 16 16 16 17 16 17 17 17 17 17 16 16 16 16 15
11 11 11 10 10 11 11 11 11 12 13 14 13 14 15 16 17 18 17 17 17 17 17 17 17 17 16 16 16 16 15 14
12 11 10 10 10 10 11 11 11 12 12 12 13 13 14 15 17 17 16 17 17 17 17 17 17 17 17 17 16 16 15 14
13 11 10 10 10 11 11 11 11 12 12 12 13 13 14 14 15 16 17 17 17 17 17 17 17 16 17 17 16 16 16 15
14 12 12 10 10 11 11 11 12 12 12 12 12 12 13 14 15 15 15 16 17 17 17 17 17 16 16 16 16 15 15 15
16 14 13 11 11 11 11 10 11 11 11 12 12 12 13 13 14 14 15 16 17 17 17 17 17 17 16 16 16 15 15 14
16 14 13 12 11 11 11 11 11 11 11 12 12 12 13 13 14 14 15 16 16 17 17 17 17 17 15 15 15 14 14 14
16 15 15 14 12 12 12 12 12 12 12 12 12 12 13 13 14 14 15 15 16 17 17 17 17 16 14 14 13 12 13 13
16 16 15 15 14 13 12 13 13 13 13 13 13 13 13 13 14 14 14 15 15 16 16 15 15 15 14 13 13 13 12 13
17 17 16 15 15 14 14 14 14 14 14 13 13 13 14 14 14 14 14 15 15 15 15 14 14 14 13 13 12 12 11 11
18 18 18 17 16 15 14 14 14 14 14 14 14 14 14 14 14 14 14 14 15 15 14 14 14 13 12 12 11 11 10 10
19 19 18 18 17 16 15 14 14 15 14 14 14 14 14 14 15 14 14 14 15 13 13 13 14 11 12 11 11 10 10 10
18 17 17 18 18 17 16 15 15 15 15 15 14 14 14 15 16 14 14 14 13 13 15 13 12 13 11 11 9 10 10 9
17 18 18 19 19 18 18 17 16 16 15 15 15 14 15 15 14 14 13 13 13 13 15 14 11 11 10 9 9 9 8 8
18 16 16 16 17 18 19 18 18 17 16 15 15 15 15 14 14 14 13 13 12 12 13 12 11 10 9 9 9 8 7 6
19 17 17 16 17 17 17 18 19 18 16 15 15 14 14 14 14 13 13 13 12 12 11 10 9 9 10 9 8 7 6 6
19 17 18 17 17 19 18 18 18 17 16 14 14 14 14 13 12 12 12 10 10 10 9 9 9 9 8 8 7 6 6 5
18 18 16 17 17 16 16 15 15 15 13 13 13 12 12 11 11 10 10 10 9 9 9 8 8 7 7 6 6 5 5 4

GFSFLT1_925_temp_048.txt.gz
Temp
13 12 11 11 11 12 12 12 12 12 12 12 14 14 15 17 16 16 16 16 17 17 17 17 17 16 16 16 16 15 15 15
13 13 11 11 11 11 11 12 11 12 12 12 14 14 15 16 16 15 16 16 16 17 16 16 17 16 16 16 15 15 15 14
12 13 11 11 11 11 11 12 12 11 12 12 13 14 14 16 15 15 16 16 16 16 17 16 16 15 16 16 16 15 14 14
12 12 11 11 10 11 11 11 12 12 12 12 13 14 15 15 14 15 15 16 17 16 16 16 16 16 16 16 16 15 15 14
12 12 12 11 10 11 11 11 11 12 12 13 13 14 14 15 15 15 15 16 17 17 16 16 17 16 16 16 16 15 15 15
12 11 11 10 10 10 11 11 11 11 12 12 13 13 14 15 14 15 16 16 16 17 16 16 16 16 16 16 16 15 15 15
14 13 11 10 10 10 10 11 11 11 12 13 13 13 13 13 14 15 16 16 16 17 16 16 17 16 16 16 16 15 15 14
14 12 11 10 9 10 10 10 10 11 11 11 12 12 13 12 13 13 14 15 16 16 16 16 17 16 16 16 15 14 13 13
15 13 12 11 10 10 10 10 10 11 11 11 11 12 12 12 13 13 13 14 15 15 15 16 17 16 16 15 14 13 12 12
15 15 13 12 11 11 11 10 10 11 11 11 11 11 11 11 12 12 13 13 14 14 15 16 17 16 15 14 13 13 11 12
15 15 15 13 12 12 12 12 12 11 11 11 11 11 11 11 12 12 13 13 14 15 16 16 15 15 14 13 13 14 12 12
16 15 15 15 14 13 12 12 12 12 12 12 12 12 12 12 13 13 14 15 15 15 15 15 15 14 13 13 12 12 11 10
16 16 16 15 15 14 13 12 12 13 12 12 12 13 12 12 12 13 17 13 13 14 14 15 15 12 12 12 12 12 11 10
15 15 15 15 15 15 14 14 13 13 13 13 12 12 13 13 13 14 14 14 14 14 13 14 13 13 12 12 12 11 11 10
15 15 16 16 16 15 15 15 14 14 13 13 13 13 13 13 13 14 14 14 13 13 12 12 12 12 13 12 12 10 9 8
16 15 15 15 16 16 16 16 15 14 14 13 13 13 13 13 14 14 13 13 13 12 12 12 12 12 12 11 11 9 8 8
18 17 15 14 16 16 16 16 16 15 14 14 14 14 13 13 13 13 13 12 12 12 12 12 12 11 11 10 10 9 8 7
18 17 17 15 15 16 16 16 16 16 15 14 14 14 13 13 13 13 13 12 12 12 12 12 11 10 10 9 8 8 7 6
17 17 15 18 19 17 17 16 16 16 15 14 14 14 13 13 12 12 12 12 11 11 10 10 9 9 8 7 7 6 6 5

GFSFLT1_925_temp_051.txt.gz
Temp
15 13 12 12 12 12 12 12 12 12 12 12 12 12 12 13 15 14 15 16 16 16 16 16 16 16 15 15 15 15 15 14
14 13 12 12 12 12 12 12 12 12 12 12 12 12 12 12 14 13 15 16 16 16 16 16 16 16 16 15 15 15 14 14
14 13 12 12 12 12 12 12 12 12 12 12 12 12 13 13 13 15 15 16 16 16 16 16 16 15 15 15 15 13 13 14
14 13 13 12 12 11 11 12 12 12 12 12 12 12 13 12 15 16 16 16 16 16 16 16 15 16 16 15 15 15 14 13
15 14 13 13 12 12 12 11 11 12 12 12 12 13 14 14 15 16 16 15 15 16 16 17 16 16 16 15 15 15 14 14
16 15 14 13 12 12 12 12 12 11 12 12 12 14 15 14 15 16 17 15 16 16 16 16 16 17 16 15 16 15 15 14
17 15 14 13 12 11 11 12 12 12 12 12 12 13 14 15 15 15 15 15 15 15 15 16 16 16 16 15 15 14 14 14
18 16 14 13 11 10 10 11 12 12 12 12 12 13 13 14 14 14 14 13 14 15 15 15 15 15 16 16 15 15 14 14
18 17 15 13 11 10 10 11 12 12 12 12 12 12 13 13 13 14 14 13 13 14 15 15 15 16 16 16 15 15 14 13
19 17 16 14 12 11 11 11 12 12 12 12 12 12 12 12 13 13 13 14 14 14 15 15 15 15 15 15 16 15 14 14
19 18 16 15 14 13 11 12 12 12 12 12 12 12 12 12 12 12 13 13 14 15 15 15 15 15 15 15 14 14 13 13
19 18 17 16 15 14 12 12 12 12 12 12 12 11 11 11 11 13 14 14 14 15 15 14 14 14 15 14 14 14 13 12
20 19 17 16 15 15 13 13 13 12 12 12 11 11 11 11 11 11 11 12 13 13 12 12 12 13 13 14 14 13 12 12
20 19 18 17 16 15 14 13 13 13 12 12 11 11 11 11 11 12 12 13 12 12 12 12 13 13 13 13 12 12 11 13
21 19 18 18 17 16 15 14 13 13 13 12 12 12 12 12 12 12 12 12 13 12 13 13 13 13 12 11 11 11 11 11
20 20 19 18 17 16 16 16 14 13 13 13 13 13 12 12 12 12 12 12 13 13 13 12 13 12 11 12 11 11 11 10
21 19 19 18 17 17 17 16 15 14 14 14 14 13 13 12 13 13 13 13 12 12 12 13 12 12 12 12 12 11 10 9
21 21 19 18 17 17 17 17 16 14 14 14 14 14 13 13 13 13 13 13 13 12 12 12 12 12 12 12 11 10 9 7
20 21 20 20 19 17 18 17 16 15 15 15 14 14 14 14 13 13 13 13 12 12 12 12 12 11 11 10 9 8 7 6

GFSFLT1_925_temp_054.txt.gz
Temp
20 16 16 14 13 13 13 12 12 12 12 12 12 12 12 13 14 14 14 15 15 16 17 16 16 17 16 16 16 16 17 17
20 17 14 14 14 13 13 12 12 12 12 12 12 11 12 14 14 13 14 15 15 16 17 16 16 17 17 16 16 16 16 16
20 18 16 14 15 13 12 12 12 12 12 12 12 12 12 12 13 13 14 14 15 16 17 16 16 17 16 15 15 16 17 15
21 19 18 16 15 14 12 12 12 12 12 12 12 11 12 12 13 14 14 15 16 16 16 16 16 16 16 15 15 16 17 15
23 21 19 17 17 15 13 12 12 12 12 12 11 12 12 12 13 14 15 15 15 16 15 15 15 16 16 16 15 15 16 17
23 22 20 18 17 16 15 13 12 12 12 12 12 12 12 12 13 13 14 15 15 15 15 15 15 16 15 15 15 15 16 16
24 22 20 19 18 16 15 14 13 12 12 12 12 13 13 14 13 13 13 14 14 14 15 15 16 15 15 16 15 15 15 15
24 23 22 20 18 17 16 14 13 12 12 12 13 13 14 15 14 14 14 14 14 15 14 14 14 14 15 15 16 15 15 15
25 24 22 20 19 17 15 15 15 14 12 12 14 14 14 15 15 15 15 15 15 15 15 14 15 15 15 15 15 15 15 15
25 25 23 21 19 17 15 15 16 16 14 14 14 14 15 15 16 16 16 17 17 16 15 15 15 15 15 15 15 15 15 15
27 25 23 21 20 18 15 15 17 17 16 16 15 15 15 15 15 15 16 16 16 15 15 14 15 15 15 15 15 15 15 15
27 25 24 22 21 19 17 16 17 17 16 16 16 15 15 15 15 15 15 15 15 15 15 15 15 15 15 15 15 15 15 15
27 25 24 22 21 20 19 17 17 17 17 16 15 15 15 15 15 15 14 15 15 15 15 15 15 16 16 15 15 15 15 15
27 26 24 23 22 20 20 18 18 18 17 16 16 15 15 15 14 14 15 14 14 14 15 15 15 15 15 14 14 14 14 14
28 27 25 24 23 21 20 20 18 18 18 17 16 15 15 15 15 15 14 15 14 14 15 15 15 15 14 14 14 14 14 13
27 27 27 26 24 22 21 20 19 18 18 17 17 16 16 15 15 15 15 14 14 15 15 15 15 15 15 15 14 14 13 12
26 27 26 25 24 23 22 21 20 18 18 18 18 17 16 16 16 15 15 15 15 15 15 15 15 14 14 14 13 11 11 11
24 25 25 25 24 21 21 21 21 19 18 18 18 17 17 16 16 16 16 15 15 15 15 15 15 15 14 12 12 11 11 10
21 22 23 25 25 23 22 23 21 20 19 19 18 18 17 17 16 16 16 15 15 15 15 14 14 13 13 13 12 10 10 9

GFSFLT1_925_temp_057.txt.gz
Temp
24 22 21 19 15 13 13 13 12 12 12 12 12 12 12 12 13 14 15 15 16 17 17 17 18 18 18 18 18 18 19 19
25 21 20 19 17 14 14 13 12 12 12 12 12 12 12 13 14 14 15 15 15 16 16 17 17 18 18 18 18 18 18 19
25 22 19 19 17 14 13 13 12 12 12 12 12 12 12 12 13 14 15 15 15 16 16 16 16 18 18 17 17 18 18 18
26 23 20 18 18 15 13 12 12 12 12 13 12 12 12 12 12 14 14 14 15 16 16 16 16 18 18 17 17 17 18 18
27 24 22 19 18 17 14 13 12 13 12 12 12 12 12 12 12 13 15 15 15 16 16 17 17 17 18 17 17 17 18 18
28 26 23 21 20 17 15 12 12 12 12 12 12 13 13 13 13 13 15 15 15 15 16 17 17 17 17 17 17 16 17 18
29 27 24 22 21 19 15 14 12 12 12 12 12 12 12 13 12 12 14 15 15 15 17 17 16 16 16 16 16 16 16 17
29 27 26 24 21 20 17 15 14 12 12 12 13 13 12 13 13 13 13 14 14 15 15 16 16 15 15 16 16 15 16 16
29 28 26 24 22 20 19 17 16 13 12 12 13 14 13 14 14 14 14 13 14 15 16 16 16 16 15 15 16 16 16 16
29 28 27 25 23 21 20 19 18 16 13 12 13 13 14 14 15 15 15 15 15 14 15 15 15 15 15 16 16 16 16 16
30 29 28 26 24 22 20 20 19 18 17 14 13 13 14 15 15 16 16 16 16 16 15 15 15 15 15 16 16 16 16 16
30 30 29 27 25 23 21 20 20 20 19 17 15 15 15 15 15 16 16 16 16 17 17 16 16 16 16 16 16 16 16 16
29 29 28 27 25 24 22 20 20 20 20 19 17 17 16 16 16 16 16 17 17 17 17 17 17 17 16 16 16 16 16 16
30 29 28 27 26 25 23 21 20 20 20 20 18 18 18 17 17 17 17 17 17 17 17 17 17 16 16 16 16 16 16 16
29 29 29 28 26 25 24 23 21 21 20 20 19 18 18 17 17 17 17 17 16 16 16 16 16 16 16 16 17 17 17 16
26 27 28 29 28 26 25 24 23 21 21 21 20 19 18 18 17 17 17 17 17 16 16 16 16 16 16 16 16 16 16 15
23 24 25 26 27 28 26 25 24 23 21 21 21 20 18 18 18 17 17 17 16 16 16 16 16 16 16 16 16 16 15 14
21 22 22 23 24 25 25 26 24 23 22 21 21 20 19 19 18 18 17 17 17 17 16 16 16 16 16 16 15 15 15 14
21 21 21 20 21 23 24 25 25 24 23 22 21 21 20 19 19 18 18 18 17 17 17 16 16 16 16 16 15 14 14 13

GFSFLT1_925_temp_063.txt.gz
Temp
22 20 18 17 16 16 14 13 13 13 14 14 14 14 13 14 15 15 15 16 15 15 16 17 16 17 17 17 18 18 18 17
22 19 17 16 16 15 14 13 13 13 13 13 13 13 13 12 13 13 15 15 15 16 16 17 17 16 17 18 18 18 18 17
21 17 16 15 15 15 14 13 13 12 12 13 13 13 12 12 12 13 13 14 16 16 17 17 16 17 17 18 18 18 18 18
20 18 15 14 14 14 14 14 13 12 12 12 12 12 12 12 12 12 14 15 16 16 16 16 16 16 16 18 18 18 18 18
21 19 16 14 14 15 14 14 13 13 12 12 12 12 12 12 12 13 14 15 16 16 15 15 16 17 18 18 18 17 16 18
20 19 19 15 15 15 15 14 13 13 13 12 12 12 13 12 13 14 14 15 16 16 17 17 17 18 18 17 17 17 17 18
21 20 19 16 14 14 14 13 12 12 12 13 12 12 12 12 13 13 14 14 15 16 16 16 17 17 17 17 17 17 17 17
21 19 18 18 14 13 13 13 13 13 12 12 13 12 13 13 12 13 13 14 14 15 16 16 16 16 17 17 17 16 17 17
22 20 19 18 15 13 13 13 13 13 12 12 12 12 12 12 13 13 13 13 14 15 16 16 16 16 16 17 17 16 16 17
22 21 20 19 17 14 14 13 14 13 13 12 12 13 13 13 13 13 13 13 14 14 15 15 16 16 16 16 16 16 16 16
23 22 21 20 18 16 14 14 14 14 13 13 13 13 13 13 13 13 13 13 14 14 15 15 15 15 16 15 16 16 16 16
23 23 22 21 19 16 16 15 14 13 13 13 13 13 13 13 13 13 13 13 13 14 14 15 15 15 15 15 15 15 15 15
21 20 21 21 20 18 17 16 15 14 14 13 13 13 13 13 13 13 13 13 13 13 14 14 14 14 14 15 15 14 14 14
20 20 20 19 19 19 18 17 17 16 13 13 12 13 13 13 13 13 14 13 13 13 13 13 14 14 14 14 14 14 14 14
19 19 18 18 18 18 19 19 18 18 15 14 13 13 13 13 13 14 13 13 13 13 13 13 13 14 14 14 14 14 14 14
19 18 17 18 18 18 18 18 19 18 18 16 14 14 13 13 13 13 13 13 13 14 14 14 14 14 14 14 14 14 14 14
18 17 17 16 14 13 13 13 14 16 19 18 18 15 14 14 13 13 13 13 13 14 14 15 14 14 15 15 15 14 14 14
16 15 14 13 10 9 9 10 12 13 15 17 18 19 17 15 15 14 14 14 14 14 14 14 15 15 15 15 15 15 15 15
14 13 11 9 7 7 7 8 9 10 9 10 11 12 15 18 17 16 16 15 15 15 15 15 15 15 15 15 16 16 15 15

GFSFLT1_925_temp_066.txt.gz
Temp
19 16 16 16 15 15 15 15 14 14 14 14 14 14 14 14 14 13 14 14 15 15 15 16 16 16 16 16 16 16 17 17
18 15 15 14 14 14 15 14 14 14 14 14 14 13 13 13 13 13 14 15 15 15 15 16 16 15 16 16 16 16 17 17
16 15 14 13 13 14 14 14 13 14 13 13 13 13 13 13 13 13 14 15 15 15 15 15 15 16 16 17 16 15 16 17
17 15 14 13 13 13 14 14 13 13 13 13 13 13 12 13 12 12 13 13 14 15 15 15 16 16 16 16 17 17 16 16
18 15 14 13 13 13 14 14 13 13 13 13 12 12 12 12 12 12 12 13 14 15 16 15 16 16 16 16 17 17 17 15
18 16 14 14 13 13 13 13 13 12 12 13 12 12 12 12 12 12 12 13 13 15 16 16 15 15 16 16 16 18 18 16
20 17 15 13 13 13 13 13 13 13 12 12 12 12 12 12 12 11 12 12 14 14 15 16 15 14 15 14 15 18 18 18
19 16 14 13 13 12 12 13 12 13 12 12 12 12 12 12 12 12 12 13 13 15 15 14 14 15 15 16 17 18 18 18
18 17 15 14 13 12 12 12 12 12 12 12 12 12 12 12 12 13 13 14 14 15 15 15 15 15 16 16 16 17 17 17
19 18 17 14 13 12 13 12 12 12 12 12 13 12 12 12 12 13 13 14 13 14 15 16 16 16 16 17 17 16 16 17
19 18 17 16 14 13 13 13 13 12 13 12 12 12 12 13 13 13 13 13 13 13 14 15 15 16 16 16 16 16 16 16
19 19 18 18 15 13 13 13 13 13 12 12 12 12 12 12 12 13 13 13 13 13 14 15 15 15 16 15 15 15 15 16
18 17 17 18 16 14 13 13 13 13 13 12 12 13 13 12 12 12 13 12 13 13 13 14 14 15 15 15 14 14 14 14
17 17 17 16 15 15 15 14 14 13 13 12 12 12 12 13 13 12 13 13 12 13 13 13 13 13 13 14 14 14 14 14
16 15 15 14 14 13 13 14 14 14 14 13 12 12 13 13 13 13 13 13 12 12 12 12 12 13 13 13 13 13 13 14
15 14 12 12 11 10 10 10 11 13 15 13 13 12 12 12 12 13 13 13 13 13 13 12 12 12 12 13 13 13 13 13
14 12 11 9 8 8 8 8 9 10 10 10 13 13 13 13 12 12 12 13 13 13 13 13 12 12 12 13 13 13 13 13
12 10 8 7 6 6 6 6 7 7 7 7 7 9 10 12 12 12 12 12 13 13 13 13 13 13 13 13 13 13 13 13
9 7 5 4 4 4 4 4 4 4 4 5 5 6 8 7 8 10 13 13 12 13 13 12 13 13 13 13 13 13 13 13

GFSFLT1_925_temp_069.txt.gz
Temp
17 15 15 16 16 17 16 15 15 16 14 14 14 14 13 13 14 14 14 14 14 14 14 15 15 15 14 15 16 15 16 15
16 15 14 15 15 16 15 14 14 15 14 14 13 14 13 13 14 14 14 14 14 14 14 15 14 15 15 15 16 16 15 15
15 14 13 13 13 14 14 14 13 14 14 14 14 13 13 13 13 14 13 14 14 14 15 15 15 15 14 15 16 15 15 15
15 14 14 13 13 13 14 14 14 14 14 14 13 13 13 13 13 13 13 13 14 13 14 14 14 15 15 15 16 16 15 15
16 14 14 13 13 13 14 13 13 13 14 13 13 13 13 13 13 13 13 13 14 14 14 13 14 14 15 15 15 16 16 15
17 14 14 14 13 12 13 13 13 13 13 13 13 13 12 12 12 12 12 12 13 14 13 14 14 15 15 16 15 16 16 16
18 16 14 13 13 12 12 12 13 13 14 13 13 12 12 12 12 12 12 12 12 13 13 14 15 15 16 16 16 15 16 17
17 14 14 13 13 12 12 12 12 13 14 13 13 12 12 12 12 12 12 12 12 13 13 13 14 15 15 14 14 15 15 16
17 15 14 13 13 13 12 12 12 12 12 13 13 13 12 12 12 12 12 12 12 12 13 13 13 14 14 14 13 14 14 14
17 15 14 13 13 13 12 12 12 12 12 13 12 12 13 12 12 12 12 12 12 12 13 13 13 13 13 13 13 13 13 13
17 15 14 14 13 12 12 12 12 12 12 12 12 12 13 13 12 12 12 12 13 13 13 13 13 13 13 13 13 14 14 14
15 15 14 13 13 12 12 12 12 12 12 12 12 12 12 12 12 12 12 12 13 13 14 14 13 13 13 12 12 13 13 14
15 15 14 13 13 13 13 12 12 12 12 12 12 12 12 12 12 12 13 13 14 14 13 13 13 14 13 13 13 13 14 14
13 13 12 12 13 13 12 13 13 13 12 12 12 12 12 12 12 13 13 14 13 13 13 13 13 13 13 13 14 14 14 14
11 11 10 10 9 10 10 10 11 11 12 13 12 12 12 12 12 12 13 13 13 13 13 12 12 12 13 13 13 13 13 13
10 9 8 8 7 7 8 8 8 9 11 10 11 12 12 12 12 12 12 12 12 12 13 13 12 12 12 12 13 13 13 12
9 8 7 6 6 6 6 6 6 6 7 6 7 9 10 11 12 12 12 12 12 12 12 12 12 12 13 12 12 12 12 12
8 7 5 4 4 4 4 4 4 4 4 4 5 5 6 7 8 9 11 12 12 12 12 12 12 12 13 13 13 12 12 12
5 4 4 3 2 3 2 2 2 3 3 3 3 2 3 3 4 5 5 6 8 9 11 12 12 12 12 13 13 12 11 11

GFSFLT1_925_temp_075.txt.gz
Temp
23 19 18 17 16 15 14 14 14 14 14 14 14 14 14 14 14 14 14 14 14 14 14 14 13 12 13 14 13 13 14 14
23 18 17 17 15 14 14 14 14 14 14 13 14 14 14 14 14 14 14 13 14 14 13 14 13 13 13 14 13 13 13 13
21 17 17 16 15 14 14 14 14 14 14 14 14 14 13 14 14 14 14 14 13 13 13 13 13 13 13 13 14 13 13 13
20 17 17 16 15 14 14 14 14 14 15 13 13 13 13 13 13 13 13 13 13 14 13 13 13 12 12 13 14 14 14 13
21 18 17 16 16 14 14 14 14 15 15 14 13 13 13 13 13 13 13 13 13 13 13 13 13 13 13 13 13 14 14 13
20 18 18 17 15 14 13 13 13 14 14 14 13 13 14 13 13 13 13 13 13 13 13 13 13 13 13 13 13 13 14 14
20 18 17 16 15 14 12 13 13 13 14 14 13 13 13 13 13 13 13 13 13 13 13 14 13 13 14 15 14 14 14 14
18 17 17 16 15 13 12 13 13 13 13 13 13 13 13 13 13 13 13 13 13 13 13 13 13 13 13 14 14 14 14 14
18 18 17 16 15 13 13 13 12 12 13 13 13 13 13 13 13 13 12 12 12 12 12 13 13 12 13 12 14 14 14 14
19 17 17 16 15 13 13 13 12 11 12 12 13 13 13 13 13 13 12 12 12 12 13 12 12 13 12 12 13 13 14 14
17 16 16 16 14 13 12 13 13 12 11 12 12 12 13 13 13 13 12 12 12 12 12 12 12 12 12 12 12 13 13 14
15 16 15 14 13 13 12 13 13 13 12 12 12 12 12 12 12 12 12 12 12 12 12 12 12 12 12 12 12 12 12 13
13 14 13 13 12 12 12 12 13 13 12 12 12 11 11 11 11 12 12 12 12 12 12 11 11 11 12 11 11 12 12 12
9 9 9 11 11 11 10 11 11 12 12 12 12 12 12 11 11 11 11 12 12 12 12 12 12 12 12 11 12 12 11 11
7 7 7 7 7 7 7 7 8 11 12 12 11 11 12 12 11 11 11 11 11 12 12 12 12 12 12 13 12 12 12 12
6 5 6 5 5 5 6 6 6 7 7 7 7 9 10 11 11 11 12 12 12 11 11 11 12 12 12 12 12 12 12 12
5 5 5 4 4 4 5 4 3 5 4 3 4 5 6 6 7 9 10 10 10 11 11 11 11 10 9 10 11 11 12 12
5 4 3 3 3 3 3 3 2 2 1 2 2 3 3 3 4 5 5 6 7 6 6 7 7 6 5 7 8 9 10 10
3 2 2 2 2 2 1 1 1 1 1 0 1 1 2 2 2 2 3 3 3 3 2 3 2 1 3 4 6 8 8 8

GFSFLT1_925_temp_078.txt.gz
Temp
29 27 25 24 23 21 19 16 16 16 15 14 14 15 14 15 14 14 14 14 14 14 14 14 13 14 14 15 16 16 18 18
29 27 24 23 22 21 19 16 15 15 14 14 14 14 14 14 14 14 14 14 14 14 14 13 13 13 14 14 16 17 17 17
29 27 23 22 22 21 19 16 15 15 15 14 14 14 14 14 14 14 14 14 14 14 14 13 13 12 13 14 16 16 17 17
29 27 24 22 22 20 19 18 17 16 16 15 15 14 14 13 14 14 14 14 14 14 13 13 13 13 13 14 15 16 17 16
28 28 25 23 22 20 19 18 17 17 17 16 15 15 14 14 14 13 13 14 13 13 13 13 13 13 13 14 15 16 17 16
29 28 26 23 22 20 19 18 17 17 17 16 16 14 14 15 14 13 13 13 12 12 13 13 13 13 13 14 15 15 16 17
27 27 24 23 21 19 18 18 16 17 17 16 15 15 14 15 13 13 13 13 13 13 13 13 13 13 13 13 14 14 15 16
26 25 24 22 21 17 16 17 16 16 16 16 16 16 15 15 15 14 13 13 13 13 13 13 12 12 12 13 13 14 14 15
25 24 23 22 20 15 15 17 15 15 16 17 15 15 13 14 14 15 14 13 13 13 13 13 12 12 13 13 12 13 14 14
24 23 23 21 20 14 14 15 15 15 15 16 15 14 14 14 13 13 13 13 13 13 12 12 12 13 13 13 13 13 13 13
21 21 21 20 17 14 14 15 14 14 14 14 15 15 14 13 13 13 14 13 12 13 12 12 12 12 12 12 12 12 12 13
18 19 19 17 15 14 14 15 14 13 13 13 15 15 14 13 13 13 13 12 12 12 12 12 12 12 12 11 12 12 11 11
10 14 15 14 14 13 13 16 16 15 13 13 14 14 14 14 13 13 12 12 12 12 12 12 12 12 12 12 12 12 11 11
8 8 8 8 10 12 12 13 14 13 13 13 13 12 12 13 14 14 14 13 12 12 12 12 12 12 12 12 12 12 12 12
6 6 6 6 6 6 7 8 10 12 12 11 11 12 12 12 12 13 13 13 13 12 12 12 12 12 12 13 13 13 13 12
5 5 5 5 5 5 5 5 6 6 6 6 6 8 9 10 11 12 12 12 13 14 14 13 13 12 10 13 13 12 12 13
4 4 4 4 4 4 4 3 3 4 4 4 5 5 5 6 7 8 9 9 10 10 11 11 10 7 6 10 11 11 11 12
4 3 3 3 3 3 4 4 3 3 3 4 4 5 4 4 4 4 5 5 5 5 4 4 4 3 4 6 7 9 9 9
3 3 3 3 2 2 2 3 3 3 3 3 3 3 4 5 5 4 4 2 1 0 0 0 0 -1 2 5 6 7 6 5

GFSFLT1_925_temp_081.txt.gz
Temp
31 31 30 29 28 26 24 20 20 19 18 16 16 15 15 15 15 15 15 15 15 15 14 14 14 14 14 14 15 17 18 18
31 31 30 29 28 25 23 21 20 19 18 17 16 16 16 15 14 14 15 15 15 15 14 14 14 14 14 14 15 16 18 18
30 31 29 27 27 25 23 21 20 19 19 18 17 16 17 16 15 14 14 14 14 14 14 14 13 13 13 14 14 15 18 17
30 30 29 26 26 25 23 21 19 19 19 18 16 15 16 15 15 15 14 15 15 14 14 14 13 13 13 14 14 16 17 17
30 30 30 27 26 25 24 21 20 19 19 17 16 16 16 17 16 15 15 15 15 14 14 13 13 13 13 13 14 15 16 17
29 30 31 28 26 24 23 22 21 20 19 20 19 19 18 17 17 15 14 14 14 14 13 13 13 13 13 13 14 15 16 17
30 31 30 29 26 24 22 22 21 20 20 20 19 19 18 17 16 15 14 13 13 13 13 13 13 13 13 13 14 15 16 17
28 29 30 29 26 23 22 22 20 21 20 19 19 18 17 16 16 15 13 13 13 12 12 13 13 13 13 13 14 15 15 16
27 29 29 27 25 23 22 22 20 20 20 19 18 18 18 18 17 16 14 13 13 13 12 13 12 13 13 13 14 14 15 15
24 27 27 26 24 20 20 21 17 19 20 19 19 18 17 17 16 15 15 14 13 13 13 13 12 13 13 13 13 13 14 14
17 25 25 25 21 17 16 18 16 17 19 19 17 17 16 16 15 15 15 14 14 13 13 13 13 12 12 12 12 12 13 13
12 15 22 20 17 15 15 16 16 16 16 17 16 16 16 16 15 15 15 15 14 13 13 12 12 12 12 11 11 12 12 13
8 9 10 16 15 15 15 16 15 15 15 15 15 15 15 15 15 15 15 14 13 13 13 12 12 12 12 12 11 11 11 11
7 7 7 8 8 10 11 15 15 14 14 14 14 15 15 15 14 14 13 13 12 12 13 13 13 12 12 12 12 11 11 11
5 5 5 5 6 6 6 7 10 12 12 12 12 13 14 14 14 15 14 13 13 13 12 12 12 12 12 12 12 12 12 12
4 4 4 4 4 4 4 5 5 6 7 7 7 8 10 11 11 12 12 12 11 12 12 11 10 10 10 11 11 12 12 13
3 3 3 3 3 3 3 3 3 4 5 5 5 5 6 7 7 7 9 9 9 9 8 7 6 5 5 8 11 11 11 11
3 3 2 2 2 2 2 2 3 3 3 4 5 5 5 5 5 5 4 3 4 4 3 3 2 3 5 6 8 8 7 7
2 1 1 1 1 1 2 1 1 2 3 3 4 5 5 4 3 3 2 1 1 0 0 0 1 1 4 6 5 5 4 2

GFSFLT1_925_temp_084.txt.gz
Temp
29 29 30 30 31 28 24 21 20 20 20 17 16 16 16 16 16 17 17 16 16 16 16 15 15 14 15 14 14 14 15 15
29 30 30 31 30 27 23 21 20 19 17 16 16 15 15 16 17 16 16 16 15 15 15 14 14 14 15 14 14 14 14 17
28 29 30 30 28 26 23 21 20 20 18 17 18 17 16 16 16 15 15 15 15 15 15 14 14 14 14 14 14 14 14 17
28 28 28 28 28 25 24 21 21 20 19 19 18 18 17 17 16 15 15 15 15 15 15 14 14 14 14 14 14 14 14 16
28 28 28 27 27 25 24 22 21 20 20 19 17 16 17 17 16 16 15 15 15 15 15 14 14 14 14 14 14 14 15 16
28 28 29 27 26 25 24 22 21 20 20 19 18 17 17 17 17 16 16 15 14 14 14 15 13 13 13 13 13 13 14 15
27 28 29 28 26 25 24 22 21 20 20 18 18 18 18 17 17 16 15 14 14 14 14 14 13 13 13 13 13 13 14 15
22 25 29 28 26 24 24 22 21 20 20 20 19 20 19 18 16 15 14 13 13 13 13 13 13 13 13 13 13 14 14 14
17 18 16 27 25 24 23 22 22 21 20 20 19 18 18 17 17 15 14 13 13 12 12 13 13 13 13 12 12 13 13 14
15 15 15 27 25 23 22 23 22 21 20 20 19 18 18 17 16 15 15 14 13 13 13 13 13 13 13 13 12 13 13 14
11 11 12 21 23 20 21 21 21 20 20 19 19 18 18 17 16 15 15 14 13 13 12 13 12 13 13 13 13 13 13 14
9 9 9 11 17 16 17 17 18 19 19 19 18 17 17 16 16 15 15 14 14 13 13 12 13 12 13 13 13 13 13 13
7 7 7 7 8 12 15 15 15 16 17 16 17 16 16 15 15 15 15 14 13 13 13 13 12 12 12 12 12 12 12 12
6 5 5 5 6 6 7 11 14 15 15 15 15 16 15 15 15 15 14 14 13 13 13 13 12 12 12 12 11 12 12 12
5 4 4 4 4 4 4 6 10 12 12 12 12 12 13 13 14 14 14 13 13 13 12 12 12 12 12 12 12 11 11 11
4 3 3 2 3 3 3 4 5 7 8 8 8 9 10 10 10 10 11 12 11 11 11 10 9 10 10 11 11 11 12 12
3 3 2 2 1 2 2 3 3 4 5 5 6 7 8 7 7 8 8 8 7 8 7 6 6 5 6 8 10 9 10 10
2 1 1 1 0 0 0 1 2 3 4 4 5 5 4 4 4 3 3 3 4 3 3 3 3 3 6 7 8 8 7 6
1 1 0 -0 -1 -1 -0 -0 0 1 2 3 3 3 3 2 2 1 1 1 0 -0 -0 1 2 3 4 5 5 5 3 2

GFSFLT1_925_temp_087.txt.gz
Temp
26 27 28 28 29 26 22 21 20 20 20 18 18 17 17 17 18 18 18 18 17 16 16 16 16 15 16 15 15 15 15 14
26 27 28 28 28 23 21 19 19 20 18 17 17 17 16 16 17 18 18 18 17 16 16 16 15 15 16 15 15 15 14 14
25 25 26 27 26 23 20 19 19 18 17 17 16 16 16 16 16 17 17 17 16 16 16 15 14 15 14 14 15 14 14 14
25 24 24 25 24 21 19 19 19 18 18 18 17 16 16 15 15 16 16 16 16 16 15 15 14 14 14 14 14 14 14 13
23 24 23 22 22 20 19 19 19 18 19 18 16 15 15 15 16 16 15 15 15 15 15 15 14 14 14 14 14 14 14 14
22 23 23 24 22 20 19 19 19 19 19 18 17 16 16 16 16 16 15 15 15 14 14 14 14 14 14 14 13 13 14 14
16 16 16 19 22 21 20 19 19 19 19 18 17 17 16 16 16 15 15 15 15 15 14 14 14 14 14 14 13 13 13 14
13 12 12 13 15 21 19 19 19 19 19 18 17 17 17 17 16 15 15 14 14 15 14 14 14 13 13 13 13 13 13 13
11 11 10 11 14 20 20 19 18 18 19 18 18 17 17 17 16 16 15 15 13 13 14 13 13 13 13 13 13 13 13 13
9 10 9 10 18 21 19 19 19 18 19 18 17 18 17 17 17 16 15 14 13 13 13 13 13 13 13 13 13 13 13 13
8 8 8 8 10 14 16 19 18 18 19 19 18 18 18 17 16 15 15 14 13 13 12 13 13 13 13 13 12 13 12 13
7 6 6 6 7 8 11 15 17 18 19 18 18 17 18 17 16 15 15 14 13 13 12 12 13 13 13 12 12 12 12 12
6 5 5 5 5 6 7 10 15 17 17 17 17 17 17 16 16 15 15 14 14 13 13 12 12 12 13 12 12 12 12 13
5 4 4 3 4 4 5 6 12 14 15 16 15 16 16 15 15 15 14 14 14 13 13 12 12 12 12 12 13 13 13 13
4 3 3 2 2 3 4 4 6 10 12 12 13 12 13 14 14 13 13 13 12 12 12 12 12 12 11 12 12 12 12 12
3 3 2 2 2 2 2 3 4 6 8 10 9 10 11 12 12 12 12 12 11 10 10 10 10 11 11 11 11 11 11 11
2 2 2 1 1 1 1 1 2 4 5 6 6 8 7 8 8 8 9 8 8 8 7 7 7 8 9 10 10 11 10 9
1 1 1 0 -0 -0 -0 0 1 2 3 4 4 4 4 4 4 3 3 3 4 3 4 4 4 5 6 8 9 8 6 5
0 0 -1 -1 -1 -1 -0 -0 0 0 1 2 2 2 2 1 1 1 0 -0 0 0 -0 1 2 1 2 4 5 4 3 1

GFSFLT1_925_temp_093.txt.gz
Temp
20 22 23 24 25 24 23 21 20 19 18 18 19 19 19 19 19 19 18 18 17 16 16 16 15 15 14 14 14 14 15 14
18 20 23 23 23 22 22 20 19 18 17 17 17 17 18 19 18 18 18 18 17 16 16 15 15 14 14 14 14 15 14 14
14 13 17 21 22 23 21 20 19 18 17 17 17 17 17 18 18 18 18 17 17 16 16 16 16 14 14 14 14 14 14 14
12 12 12 11 14 20 21 20 19 18 17 17 17 16 16 16 17 18 18 17 17 16 17 18 15 14 14 14 14 14 14 14
11 11 11 10 10 13 20 20 19 17 17 16 16 16 16 16 16 17 17 16 16 16 16 17 15 15 14 14 14 13 14 14
10 11 11 10 10 10 17 19 18 17 16 16 16 16 16 17 15 15 16 15 15 16 16 16 15 14 14 14 14 14 14 14
10 10 10 9 9 10 16 18 17 16 16 16 16 16 15 15 14 14 15 15 15 15 15 16 15 14 14 14 14 13 13 14
9 9 8 8 8 9 13 17 17 16 15 15 16 16 16 15 14 14 14 14 14 14 14 14 14 14 14 14 14 13 13 13
8 7 7 7 7 8 10 17 16 15 15 15 15 15 15 16 15 14 14 13 13 14 14 14 14 14 14 14 14 13 13 13
7 6 6 6 6 6 8 15 15 15 15 14 14 14 15 15 15 15 14 14 14 14 15 15 15 14 14 13 13 13 13 13
6 5 5 5 5 5 7 10 16 15 14 15 14 14 15 16 16 15 15 15 15 15 14 14 14 14 13 13 13 13 13 13
5 4 4 4 4 4 5 7 13 14 14 14 14 14 15 16 16 15 15 15 15 14 14 13 13 13 13 12 13 13 13 13
4 4 3 3 3 4 4 5 8 13 15 14 14 15 15 15 15 15 15 15 14 14 13 12 12 12 13 13 13 12 13 13
3 3 2 2 2 3 3 3 5 8 13 14 13 14 14 15 15 15 14 14 13 13 13 12 12 12 13 12 12 12 12 13
2 2 1 1 1 1 2 2 4 5 7 12 13 13 14 14 14 13 13 13 13 12 12 12 12 12 12 12 12 12 12 12
2 1 1 0 0 1 1 2 3 4 4 6 8 8 11 13 13 13 12 12 12 12 11 11 11 11 11 12 12 12 12 12
1 1 0 0 -0 -0 0 1 2 2 2 2 3 4 4 7 8 9 9 9 9 10 9 9 8 8 9 11 11 11 11 11
0 0 -0 -1 -1 -1 -1 -0 0 1 1 1 0 1 1 1 3 3 4 5 5 6 5 6 5 4 6 8 10 10 9 7
-0 -1 -1 -2 -2 -1 -1 -1 -1 -1 -1 0 0 0 -0 -0 -0 -0 -0 1 1 1 2 2 2 -0 2 5 6 6 5 4

GFSFLT1_925_temp_096.txt.gz
Temp
14 14 14 15 16 18 22 22 20 19 18 17 17 17 18 19 18 18 17 16 17 17 16 15 14 14 14 14 14 14 14 14
13 13 12 12 14 14 18 21 20 17 18 17 17 17 16 16 17 18 18 17 17 17 16 15 14 14 14 14 14 14 14 14
13 12 11 11 10 11 13 17 20 18 18 17 17 17 17 16 16 16 19 17 18 17 16 15 15 14 14 14 14 14 14 14
11 11 11 11 10 9 10 13 17 18 17 17 17 16 16 16 16 16 16 17 18 17 16 15 15 14 14 14 14 14 14 14
10 10 10 10 10 9 9 10 13 17 17 17 16 17 17 16 16 16 16 16 17 17 16 16 16 14 14 14 14 14 14 14
8 9 9 9 8 8 8 10 12 17 17 17 16 17 17 16 17 22 20 15 17 17 16 16 15 14 14 15 14 14 14 13
9 9 8 7 7 7 7 9 13 16 17 16 16 16 16 15 15 15 14 15 17 16 16 16 15 15 14 14 14 14 13 13
8 7 7 6 6 6 6 8 11 16 17 16 15 16 15 15 15 15 15 14 15 15 16 15 15 15 14 14 14 14 14 13
7 6 6 5 5 5 5 7 9 16 16 16 15 15 15 16 15 14 14 14 14 14 15 14 15 14 14 14 14 14 14 13
6 5 4 4 4 4 5 6 8 15 15 15 14 15 15 15 14 14 14 14 14 14 13 13 14 14 14 14 14 14 13 13
4 4 4 3 3 3 4 5 7 15 15 14 14 14 14 15 15 13 13 13 13 13 13 13 14 14 14 14 14 13 13 13
4 3 3 3 3 3 3 4 6 9 14 14 14 14 14 14 14 13 14 14 13 14 14 14 14 14 13 13 13 13 13 13
3 3 2 2 2 2 2 3 5 7 11 14 14 14 15 17 13 14 14 15 14 14 14 13 13 12 13 12 12 13 12 12
2 2 2 1 1 1 2 2 3 5 8 12 13 14 13 13 14 14 14 14 13 13 13 12 12 12 12 12 12 13 12 13
2 1 1 1 0 0 1 1 2 3 4 5 7 9 13 13 13 13 13 13 13 12 12 11 11 12 12 12 12 12 12 12
1 1 1 -0 -0 -0 -0 0 1 2 2 2 2 4 8 9 12 13 13 12 11 11 11 10 11 11 12 12 12 12 12 12
1 1 0 -0 -1 -1 -1 -1 -0 0 1 1 1 2 3 3 3 9 10 9 9 9 9 9 9 9 10 11 11 11 11 11
-0 -0 -1 -1 -1 -1 -1 -1 -1 -1 -1 -0 0 1 1 2 1 2 4 4 5 5 5 5 4 5 7 9 10 9 8 7
-1 -1 -1 -2 -2 -2 -2 -2 -2 -2 -2 -1 -1 -0 0 2 0 -2 -1 0 0 0 0 0 1 1 3 6 7 5 4 3

GFSFLT1_925_temp_099.txt.gz
Temp
15 14 14 13 13 12 13 15 18 18 17 16 17 16 16 17 17 16 16 16 17 16 16 15 15 15 15 14 14 14 14 14
15 14 13 12 12 12 12 12 14 16 17 17 17 16 16 16 16 16 16 16 16 16 16 15 15 15 15 14 14 14 14 14
15 13 12 12 11 11 11 11 11 12 17 18 18 17 16 16 16 16 16 16 16 16 16 15 15 15 14 14 14 14 14 14
13 12 11 11 10 10 10 10 10 11 12 18 18 17 17 16 16 16 16 16 16 16 16 15 15 15 14 14 14 14 14 14
13 12 11 10 9 8 8 8 9 11 12 16 18 17 17 17 16 16 16 15 15 15 15 15 15 15 14 14 14 14 14 14
11 11 9 9 8 7 6 7 8 10 12 15 18 17 18 18 17 16 15 15 16 19 19 14 15 15 14 14 14 14 14 14
10 9 8 7 6 5 5 6 7 9 12 15 17 17 17 17 16 15 16 15 17 18 14 15 15 14 14 14 14 14 14 14
8 8 7 5 5 4 4 5 6 8 10 16 17 17 17 17 16 16 16 15 14 18 16 15 15 14 14 14 14 14 14 14
7 7 6 4 4 4 4 4 5 7 11 16 17 16 16 16 16 16 16 15 15 14 15 15 15 14 15 14 14 14 14 14
6 6 5 3 3 3 3 4 5 7 10 16 16 15 15 15 15 15 15 15 14 15 15 15 15 15 14 13 13 14 14 13
6 5 4 3 2 2 2 3 4 6 9 15 15 15 15 14 14 14 14 14 14 14 14 14 14 14 14 14 13 13 14 13
5 5 3 2 2 2 2 2 3 5 6 13 14 14 14 14 14 14 14 14 16 13 13 14 14 13 13 13 13 13 13 13
5 4 3 2 1 1 1 2 2 4 4 8 13 13 13 13 14 13 13 16 15 13 12 12 13 13 14 13 13 13 13 13
4 3 2 1 1 0 0 1 1 2 3 5 7 10 12 13 13 13 13 13 14 12 12 13 13 13 13 13 12 12 12 13
3 3 2 1 0 -0 -0 -0 0 1 2 2 3 4 7 10 13 13 13 13 13 12 12 13 12 12 12 12 12 12 12 12
2 1 1 0 -0 -1 -1 -1 -1 -0 0 1 1 2 4 5 9 11 12 13 13 12 12 11 11 11 11 12 12 12 12 12
1 1 1 -0 -1 -1 -2 -2 -1 -1 -1 -0 0 1 1 3 2 7 4 9 9 10 10 9 9 9 10 11 11 11 11 10
0 0 -0 -1 -2 -2 -2 -3 -2 -2 -2 -2 -1 -0 0 1 2 1 2 0 5 4 4 5 5 6 6 9 10 10 8 7
-0 -1 -1 -2 -3 -3 -2 -3 -3 -3 -3 -3 -2 -2 -1 -0 1 1 1 -1 -1 -0 0 1 1 1 3 4 7 6 5 4

GFSFLT1_925_temp_102.txt.gz
Temp
20 19 18 17 17 16 17 17 16 16 17 20 20 20 18 19 19 19 18 17 17 17 17 16 16 16 16 15 15 15 15 16
20 19 18 17 16 16 15 15 15 15 17 19 21 20 19 19 20 19 18 17 17 16 16 16 16 15 16 15 15 15 15 15
19 18 17 16 15 15 14 14 14 14 15 16 20 21 21 19 20 20 18 17 16 16 16 15 15 15 15 15 15 14 15 15
18 17 16 15 14 13 12 12 12 12 13 14 16 19 21 19 18 18 17 17 16 16 15 15 15 15 15 16 15 14 14 14
17 16 15 13 12 11 9 9 10 10 11 13 16 18 21 20 19 17 17 16 16 15 15 16 16 15 15 15 15 15 15 15
16 15 13 12 10 8 7 7 7 8 8 10 12 16 20 21 20 18 16 16 16 15 15 16 15 15 15 15 15 16 15 14
15 14 12 12 10 8 6 5 6 6 7 8 10 14 18 21 20 18 16 16 15 15 15 15 15 15 15 15 15 16 15 15
14 13 12 10 8 7 5 4 4 5 6 7 10 14 17 20 20 19 16 15 15 15 15 14 16 17 16 15 15 15 15 14
13 12 10 9 7 6 4 3 3 4 5 7 9 16 18 19 19 18 17 16 16 16 15 15 15 19 18 15 15 15 15 14
12 11 9 8 6 5 3 2 3 3 5 6 9 17 19 17 17 17 17 18 19 17 15 14 14 14 14 14 15 15 14 14
11 10 8 7 5 4 2 2 2 3 4 5 9 16 16 16 16 17 16 18 17 16 15 14 14 15 14 15 15 14 14 14
9 9 7 6 5 4 1 1 1 2 3 5 7 14 15 15 15 15 15 15 15 15 15 14 14 14 14 14 14 14 14 14
9 8 7 6 5 3 1 0 0 1 2 3 5 8 11 14 14 14 14 14 14 14 15 14 14 14 14 14 14 14 14 13
8 8 7 5 4 2 0 -0 -1 -0 0 2 3 3 5 9 13 14 14 14 14 13 13 15 15 14 14 13 14 14 13 13
6 6 6 4 3 2 -0 -1 -1 -0 -0 1 2 2 3 4 8 12 13 13 13 13 14 13 13 13 13 13 13 13 13 13
5 5 4 4 2 1 1 -1 -2 -1 -1 -0 0 1 2 2 6 7 10 13 13 12 12 12 12 12 12 12 12 12 12 12
4 4 3 2 1 -0 -0 -1 -2 -2 -2 -2 -1 -0 0 1 2 3 2 6 6 9 10 10 10 10 10 11 12 11 11 11
1 2 1 0 -1 -1 -1 -2 -2 -2 -3 -2 -2 -2 -1 -0 0 2 1 0 0 0 3 6 6 6 8 10 10 9 9 7
-0 -1 -1 -1 -2 -2 -1 -1 -2 -2 -3 -3 -3 -3 -2 -2 -1 -1 0 0 -0 -0 -1 0 1 1 3 5 6 6 4 3

GFSFLT1_925_temp_105.txt.gz
Temp
23 22 21 21 20 19 19 19 18 18 18 19 19 21 22 22 23 23 22 20 19 19 19 18 18 18 18 17 17 17 17 18
23 21 20 20 19 18 18 17 17 17 18 19 20 21 23 23 22 22 22 21 19 19 18 18 18 17 18 17 16 16 16 16
22 21 20 18 18 17 16 16 16 15 16 17 17 19 21 23 23 22 22 21 19 18 18 18 17 17 18 17 16 16 16 16
21 20 19 18 17 15 14 13 13 13 14 14 15 17 18 19 21 22 21 21 19 18 18 18 17 17 16 16 16 16 16 15
20 20 18 17 16 14 13 12 11 12 12 12 12 15 18 21 22 23 21 20 19 18 17 17 17 16 16 16 16 16 17 16
19 19 17 16 15 13 12 10 10 10 10 9 9 11 14 18 20 23 22 20 19 18 17 16 16 16 16 16 16 16 16 16
18 17 16 15 14 12 11 10 9 8 7 6 7 8 10 14 19 22 22 20 18 17 17 16 16 15 16 17 18 16 17 17
17 16 15 14 12 11 9 8 7 7 5 5 6 7 8 11 15 19 22 18 16 16 16 16 16 16 17 19 20 16 17 17
16 15 14 12 11 9 7 6 6 5 4 4 5 6 8 10 14 18 20 19 17 16 16 15 15 15 16 16 16 16 16 16
15 14 12 11 9 8 6 6 5 4 3 3 4 6 8 12 16 19 19 18 17 16 16 15 16 15 15 15 15 15 16 16
14 13 12 10 9 8 6 5 4 3 2 2 4 5 7 13 18 19 19 18 18 17 16 15 15 15 15 15 15 15 16 16
13 13 11 10 8 7 5 4 3 2 1 2 3 4 5 9 16 18 18 18 18 18 17 15 15 15 15 15 15 15 16 16
12 12 10 9 7 6 5 3 2 1 0 1 2 2 4 5 10 13 17 17 18 17 16 16 16 15 14 15 16 15 15 15
11 11 10 8 6 5 4 2 0 0 -0 -0 1 1 3 3 5 8 14 15 15 16 16 16 16 15 15 16 17 13 15 15
8 9 8 6 5 4 4 2 -0 -1 -1 -1 -1 -0 1 2 3 4 6 12 14 14 15 15 15 14 14 14 14 14 14 14
6 6 6 5 4 3 3 1 0 -2 -2 -2 -1 -1 -0 0 1 2 5 6 10 11 14 15 15 14 14 14 13 13 13 13
5 4 4 3 2 1 1 1 0 -1 -2 -2 -2 -2 -2 -1 -0 0 3 2 3 4 6 7 9 10 12 13 13 13 13 13
2 2 2 1 0 1 1 0 -0 -1 -2 -2 -2 -3 -2 -2 -2 -1 -0 -0 2 1 0 1 1 5 9 11 12 11 10 9
1 0 0 -1 -1 -1 -0 -0 -1 -2 -2 -3 -3 -3 -2 -2 -3 -3 -3 -2 -1 -1 -1 -1 -1 -0 3 8 10 7 6 4

GFSFLT1_925_temp_108.txt.gz
Temp
24 23 22 21 20 19 19 18 17 17 18 18 19 19 20 21 22 22 22 21 20 19 19 20 20 20 20 20 19 19 19 19
23 22 21 20 19 18 16 16 16 15 16 17 17 18 20 21 21 22 23 22 20 19 19 19 19 19 19 18 18 19 18 18
23 21 20 19 18 16 15 15 14 13 14 14 14 14 15 16 18 20 21 22 22 20 19 19 19 18 18 18 17 17 17 18
22 21 19 18 17 15 14 13 12 12 12 12 13 13 14 16 17 19 20 22 22 21 19 19 19 18 16 17 17 16 17 16
21 20 18 18 16 14 13 12 12 11 11 10 10 10 11 12 13 16 20 21 21 21 20 18 18 19 18 17 17 16 17 16
19 18 17 16 14 13 12 10 10 9 9 8 7 7 8 10 11 13 16 18 21 21 19 18 18 17 17 17 17 16 16 16
18 17 16 14 13 12 10 8 8 8 7 6 5 5 6 7 8 10 12 16 19 20 20 18 17 17 17 17 18 16 16 17
17 16 14 13 12 10 8 7 7 7 6 4 4 4 4 5 7 8 10 13 17 18 19 18 17 16 17 17 16 15 16 16
15 15 13 12 11 9 7 6 6 5 4 4 3 3 4 5 6 8 9 12 15 18 16 19 18 17 16 16 17 16 16 16
14 14 12 11 10 9 7 5 4 4 3 3 2 3 4 5 6 7 9 11 14 18 17 17 16 17 17 16 14 14 15 16
14 13 12 10 9 8 6 4 3 2 2 2 2 2 3 4 5 7 11 13 16 18 17 16 16 16 16 15 16 16 16 16
12 12 11 9 8 6 5 4 2 1 1 1 1 1 2 3 4 5 7 12 17 18 17 16 15 15 15 15 15 15 16 16
11 11 9 8 7 5 4 3 2 -0 -0 0 1 0 1 2 2 3 5 7 14 17 17 17 15 15 15 15 15 15 15 15
9 9 7 6 5 4 3 2 1 -0 -1 -1 -1 -1 -0 0 1 2 3 6 10 14 17 18 15 14 15 14 15 15 16 16
7 6 6 5 4 3 3 2 1 -0 -1 -1 -1 -1 -1 -1 -0 0 1 3 6 9 12 16 16 15 14 14 14 14 14 13
5 5 4 3 2 2 2 1 -0 -1 -1 -2 -2 -2 -2 -2 -2 -1 -1 1 3 4 5 9 10 13 12 14 14 13 15 14
4 3 2 1 1 1 1 0 -1 -2 -2 -2 -2 -2 -2 -2 -3 -3 -2 -2 -0 1 1 2 2 4 9 13 14 14 13 13
2 1 1 -0 -1 -1 -1 -1 -2 -2 -2 -2 -2 -2 -2 -2 -3 -3 -4 -4 -3 -2 -1 0 -0 1 3 7 13 13 12 10
0 -0 -1 -2 -2 -2 -2 -2 -2 -2 -2 -2 -2 -2 -2 -2 -2 -3 -4 -4 -4 -4 -4 -3 -2 -2 0 0 2 7 6 4

GFSFLT1_925_temp_111.txt.gz
Temp
20 19 18 18 17 17 16 15 15 15 15 16 17 17 18 19 19 20 21 21 21 21 22 22 22 21 21 20 21 21 20 20
18 18 18 17 16 16 14 14 13 12 12 12 13 13 15 16 17 18 19 18 20 20 20 21 21 20 20 20 20 19 19 19
17 17 17 15 15 14 13 12 12 11 10 10 10 11 12 13 14 16 17 18 19 18 20 18 18 19 19 19 20 18 17 18
17 16 14 14 13 12 11 10 10 9 9 9 8 9 9 10 11 13 15 15 16 17 18 19 18 19 19 19 17 18 16 17
16 14 13 12 11 11 10 9 8 8 7 7 6 6 6 7 7 8 10 13 12 14 15 19 19 18 19 19 18 17 16 15
14 13 12 11 10 9 8 7 7 7 6 6 5 4 5 5 6 6 7 8 10 11 14 16 19 18 19 18 17 17 15 16
13 12 11 10 9 8 7 6 6 5 5 4 4 3 4 4 4 5 6 7 8 10 12 15 18 18 18 17 18 15 15 16
12 11 10 9 8 7 6 5 4 4 4 3 3 2 3 3 4 5 6 7 7 8 11 14 16 18 18 17 17 18 17 15
11 10 9 8 7 6 5 4 2 2 2 2 2 2 2 3 4 4 5 6 7 8 9 12 15 18 18 16 16 18 17 16
11 9 8 7 6 5 4 3 2 1 1 1 1 1 2 2 2 3 5 6 7 9 10 11 14 17 18 15 17 16 16 17
10 9 7 6 5 5 3 2 2 1 -0 -0 0 0 0 1 1 3 3 4 5 8 11 12 14 16 18 16 17 17 14 13
8 7 6 5 4 3 2 2 1 0 -1 -1 -0 -0 -0 0 1 1 2 3 4 6 11 14 15 16 17 16 16 14 15 14
6 5 5 4 3 2 2 1 0 -0 -1 -1 -1 -1 -1 -1 -0 0 1 1 3 4 8 12 16 18 18 18 15 14 14 14
4 4 3 2 2 2 1 0 -0 -1 -1 -1 -1 -1 -1 -1 -1 -1 -1 0 1 2 4 8 12 16 16 15 14 15 15 15
4 3 2 1 1 1 1 -0 -1 -1 -2 -2 -2 -1 -2 -2 -2 -2 -2 -1 -1 0 2 4 5 9 12 12 14 14 14 14
3 2 1 0 0 -0 -1 -1 -2 -2 -2 -2 -2 -2 -2 -2 -3 -3 -3 -3 -2 -2 -1 0 2 2 2 6 12 13 14 13
2 1 0 -0 -1 -1 -2 -2 -2 -2 -2 -2 -2 -2 -2 -2 -2 -3 -4 -4 -4 -4 -3 -2 -1 -1 2 7 10 13 12 13
0 -0 -1 -2 -2 -2 -2 -2 -2 -2 -3 -2 -2 -2 -2 -2 -2 -3 -3 -4 -4 -4 -4 -4 -3 -2 0 5 2 4 8 9
-1 -2 -2 -2 -2 -2 -2 -2 -3 -3 -3 -3 -3 -3 -3 -3 -3 -3 -3 -3 -4 -4 -4 -4 -4 -3 -2 1 0 -1 -2 -0

GFSFLT1_925_temp_114.txt.gz
Temp
16 14 14 14 14 14 14 14 14 14 15 15 15 15 16 16 16 17 17 17 18 17 19 21 21 21 20 19 18 19 19 19
14 13 13 12 12 12 12 12 11 12 11 11 11 11 12 14 14 14 15 15 16 17 17 17 19 20 20 20 20 17 17 18
13 12 11 10 10 10 10 10 10 9 8 8 8 8 10 11 11 13 14 13 14 14 14 15 16 17 18 18 19 19 19 18
12 11 9 8 8 8 8 8 8 7 7 7 6 7 7 8 10 11 12 12 12 12 13 13 14 15 17 18 18 19 19 17
11 10 8 7 7 7 7 6 6 6 6 5 4 4 4 4 5 5 7 9 10 10 10 12 13 14 15 17 17 17 18 16
10 9 8 7 6 6 5 5 5 4 4 4 3 3 3 3 4 4 5 5 6 9 9 9 11 13 15 16 16 16 17 15
10 8 7 6 5 5 4 3 3 3 2 2 3 2 2 3 3 4 5 5 6 6 7 8 9 11 13 15 16 16 16 16
8 7 6 5 4 4 4 2 2 1 1 1 2 2 2 2 2 3 3 4 5 6 6 7 8 9 11 13 15 15 14 14
7 7 6 5 4 3 2 2 2 1 0 0 1 1 1 1 1 2 2 4 4 5 5 7 7 9 10 12 14 15 15 14
6 5 4 4 3 2 2 1 1 0 -0 -1 -0 0 0 0 1 1 2 2 3 3 4 5 7 9 10 11 14 15 15 15
5 4 4 3 2 2 1 1 0 -0 -1 -1 -1 -1 -0 -0 -0 0 0 1 2 3 3 4 6 9 11 11 12 14 14 15
4 3 3 2 2 2 1 -0 -1 -1 -1 -1 -1 -1 -1 -1 -1 -1 -1 -0 0 1 2 3 6 8 12 12 12 14 15 15
3 2 2 1 1 1 0 -1 -1 -1 -1 -1 -2 -1 -1 -1 -2 -2 -2 -2 -1 -0 1 2 3 6 11 13 13 14 15 14
2 2 1 1 1 0 -1 -2 -2 -2 -2 -2 -2 -2 -2 -2 -2 -3 -3 -3 -2 -2 -1 0 1 2 5 9 13 15 15 14
2 1 1 0 -0 -1 -1 -2 -2 -2 -2 -2 -2 -2 -2 -2 -3 -3 -3 -3 -3 -3 -2 -2 -1 0 1 4 10 13 13 14
1 0 0 -1 -1 -2 -2 -2 -2 -3 -2 -2 -3 -2 -2 -2 -2 -3 -3 -4 -4 -4 -3 -3 -2 -1 -1 1 6 10 14 12
0 -0 -1 -1 -1 -2 -2 -3 -3 -3 -3 -3 -3 -3 -3 -3 -3 -3 -4 -4 -4 -4 -4 -3 -3 -3 -2 -0 2 7 8 6
-1 -1 -2 -2 -2 -2 -3 -3 -3 -3 -4 -4 -3 -4 -4 -4 -3 -3 -4 -4 -5 -5 -5 -4 -3 -3 -3 -1 -1 0 1 0
-1 -2 -2 -2 -2 -2 -3 -3 -3 -3 -4 -4 -4 -5 -5 -4 -4 -4 -4 -4 -5 -5 -5 -5 -4 -3 -4 -3 -2 -1 0 -1

GFSFLT1_925_temp_117.txt.gz
Temp
12 12 11 11 11 11 12 13 13 14 15 15 16 16 15 14 14 14 14 14 14 15 15 15 15 17 18 17 19 18 18 18
11 10 10 9 8 9 9 10 10 13 14 13 12 11 13 13 13 12 12 13 14 14 14 15 15 15 17 17 18 18 18 17
10 9 8 7 6 6 6 6 6 7 8 8 9 9 9 10 11 12 10 10 11 11 12 13 13 14 15 16 17 16 17 18
9 8 7 6 5 5 5 5 5 5 6 7 9 10 10 9 9 9 9 9 8 8 9 10 11 12 13 15 15 16 16 17
8 7 6 5 4 4 4 4 4 4 5 5 4 3 3 3 4 5 6 6 7 7 7 7 8 9 10 12 14 15 16 15
7 6 5 4 4 3 3 3 3 3 3 3 3 3 3 3 3 3 4 4 6 7 6 7 7 8 9 10 12 14 15 16
7 5 4 3 3 2 2 2 1 2 2 2 2 2 2 2 2 2 3 3 4 5 5 6 6 7 8 9 10 12 14 15
4 5 4 3 2 2 2 1 1 0 0 0 1 1 1 1 1 1 2 2 3 3 4 4 5 6 7 8 9 10 13 14
3 2 3 3 2 1 1 1 0 -0 -1 -0 -0 0 0 1 1 1 1 1 2 2 3 3 4 5 6 7 9 9 11 13
1 0 1 2 2 1 0 -0 -1 -1 -1 -1 -1 -0 -0 -0 -0 -0 -0 0 1 1 1 2 3 4 5 7 9 10 11 13
2 1 0 0 1 0 -1 -1 -1 -1 -1 -1 -1 -1 -1 -1 -1 -1 -1 -1 -1 -0 0 1 2 3 4 5 7 10 10 13
1 0 0 0 0 -0 -1 -2 -2 -2 -1 -1 -1 -1 -2 -2 -2 -2 -3 -2 -2 -1 -1 -0 1 1 2 3 6 10 11 12
1 0 0 1 0 -1 -2 -2 -2 -2 -2 -2 -2 -2 -2 -2 -2 -3 -3 -3 -3 -2 -2 -1 -1 -0 1 1 3 6 11 12
2 1 1 -0 -1 -2 -2 -2 -2 -2 -2 -2 -2 -2 -2 -2 -2 -3 -3 -3 -3 -3 -3 -2 -2 -1 -1 -0 1 4 7 12
1 0 -0 -1 -1 -2 -2 -2 -3 -3 -3 -3 -3 -3 -3 -3 -3 -4 -4 -4 -4 -4 -3 -3 -3 -2 -2 -1 -1 3 6 9
0 -0 -1 -1 -1 -2 -2 -3 -3 -3 -3 -3 -3 -3 -4 -4 -4 -4 -4 -4 -4 -4 -4 -3 -3 -3 -3 -2 -1 -0 1 4
-0 -1 -1 -1 -2 -3 -3 -3 -3 -4 -4 -4 -4 -4 -5 -5 -4 -5 -4 -5 -5 -5 -5 -4 -3 -3 -3 -3 -3 -2 -2 -1
-1 -1 -2 -2 -2 -2 -3 -3 -4 -4 -4 -5 -5 -5 -5 -5 -5 -5 -6 -6 -6 -6 -6 -5 -4 -3 -3 -4 -4 -3 -3 -3
-1 -2 -2 -3 -3 -3 -3 -3 -4 -4 -4 -5 -5 -6 -6 -6 -6 -6 -6 -7 -7 -7 -6 -6 -5 -4 -4 -4 -4 -4 -4 -4

GFSFLT1_925_temp_120.txt.gz
Temp
8 8 8 8 8 9 9 10 10 11 12 13 15 15 14 13 13 13 13 13 13 14 14 14 14 15 16 16 17 18 18 17
7 6 6 6 6 6 6 7 8 8 10 11 12 12 12 12 12 12 12 12 12 12 12 13 12 12 14 15 16 16 15 16
7 6 5 4 4 4 4 4 4 5 5 6 7 8 9 9 9 9 10 9 9 10 10 10 10 11 12 14 15 16 16 16
7 6 4 4 3 3 2 3 3 3 4 5 8 7 7 6 7 8 7 7 7 7 7 8 8 8 9 11 12 13 15 16
6 5 4 3 3 2 2 1 3 1 2 2 3 3 3 3 3 4 5 5 6 6 6 6 7 7 8 8 9 10 12 15
4 4 3 2 2 1 2 2 1 1 1 1 1 2 2 2 2 2 3 3 3 4 5 5 6 7 7 8 8 9 10 12
3 3 2 2 1 1 1 1 1 1 0 0 0 1 1 2 2 2 2 2 3 3 3 4 4 5 6 7 8 9 9 10
3 2 2 2 1 1 0 -0 -0 -0 -0 -0 -0 -0 0 1 1 1 1 1 1 1 2 2 3 4 5 5 6 7 8 9
2 1 1 0 1 0 0 -0 -1 -1 -1 -1 -1 -1 -0 -0 -0 -0 -0 -0 -0 0 1 1 2 3 3 5 6 7 8 9
2 1 0 0 -0 -0 -1 -1 -1 -1 -1 -1 -1 -1 -1 -1 -2 -2 -2 -2 -1 -1 -1 0 1 2 2 3 4 6 7 9
2 1 0 -0 -0 -1 -2 -2 -2 -2 -1 -1 -1 -1 -2 -2 -2 -2 -2 -2 -2 -2 -2 -1 -0 0 1 1 2 3 4 7
1 1 0 -0 -1 -2 -2 -2 -2 -2 -2 -2 -2 -2 -2 -2 -2 -3 -3 -3 -2 -2 -2 -2 -1 -1 -1 -0 0 2 2 5
1 1 0 -0 -1 -2 -2 -2 -2 -2 -2 -2 -2 -3 -2 -3 -3 -4 -4 -4 -3 -3 -2 -2 -2 -2 -2 -1 -1 0 2 3
-0 0 -0 -0 -1 -2 -2 -2 -3 -3 -3 -3 -3 -3 -3 -3 -3 -4 -4 -4 -4 -4 -3 -3 -2 -2 -2 -2 -1 -0 0 2
0 0 -0 -1 -1 -2 -2 -3 -3 -3 -3 -4 -4 -4 -4 -4 -4 -5 -5 -5 -5 -5 -4 -3 -3 -3 -3 -3 -2 -2 -1 -1
-0 -0 -1 -1 -2 -3 -3 -4 -4 -4 -4 -5 -5 -5 -5 -5 -5 -5 -6 -6 -6 -6 -5 -4 -3 -3 -3 -3 -3 -3 -3 -2
-0 -0 -1 -2 -2 -2 -3 -4 -4 -4 -4 -5 -5 -5 -5 -5 -5 -6 -6 -6 -7 -6 -6 -5 -5 -4 -4 -3 -4 -4 -4 -4
-1 -1 -2 -2 -2 -3 -3 -4 -4 -5 -5 -5 -6 -6 -6 -6 -6 -6 -6 -7 -7 -7 -7 -6 -6 -5 -4 -4 -4 -4 -4 -5
-2 -2 -3 -3 -3 -3 -3 -4 -4 -5 -5 -6 -6 -7 -7 -7 -6 -6 -7 -7 -7 -7 -7 -7 -7 -6 -5 -5 -5 -5 -5 -5

GFSFLT1_925_temp_123.txt.gz
Temp
7 6 6 6 5 5 5 5 6 8 9 9 10 10 10 10 10 10 12 13 13 14 14 14 14 14 15 15 16 16 17 17
7 6 6 5 5 5 4 4 4 5 5 6 8 8 8 7 7 7 9 10 11 11 11 12 13 13 13 14 14 15 16 17
7 5 4 5 4 4 4 3 3 3 4 4 4 5 6 6 5 5 5 6 6 7 7 8 8 8 10 11 12 13 15 16
6 5 4 3 3 3 2 2 2 1 2 4 5 5 5 6 5 5 5 4 5 5 6 7 7 7 8 9 9 11 14 15
5 4 4 3 2 2 2 1 1 1 1 2 3 3 3 3 3 4 4 4 4 4 5 5 6 6 7 7 8 9 10 13
4 5 4 3 3 2 1 2 1 1 1 1 1 1 2 2 2 3 3 3 3 3 3 3 4 4 5 6 7 8 9 10
4 3 3 2 1 1 2 1 1 0 1 0 0 0 1 1 1 1 1 2 2 2 2 2 2 3 4 4 5 6 8 9
3 3 2 2 1 1 0 -0 -0 -0 0 0 -0 -0 0 0 -0 -0 0 0 0 1 1 1 1 2 2 3 4 5 6 7
2 2 2 1 1 0 -0 -0 0 -0 -0 -0 -1 -0 -1 -1 -1 -1 -1 -1 -1 -0 -0 -0 0 1 2 2 3 4 6 7
3 2 1 1 0 -0 -1 -1 -1 -1 -1 -1 -1 -1 -1 -1 -1 -1 -1 -1 -1 -1 -1 -1 -0 0 0 1 2 3 3 4
2 2 1 1 -0 -1 -1 -1 -1 -1 -1 -1 -1 -1 -2 -2 -2 -3 -2 -2 -2 -2 -2 -1 -1 -1 -1 -0 0 1 2 3
3 2 1 1 -0 -1 -1 -2 -2 -2 -2 -2 -2 -3 -2 -3 -3 -3 -3 -3 -3 -3 -2 -2 -2 -1 -1 -1 -0 1 1 2
2 2 1 0 -1 -1 -1 -2 -2 -2 -2 -3 -3 -3 -3 -3 -3 -4 -4 -4 -4 -4 -3 -3 -2 -2 -2 -2 -1 -0 0 1
2 1 1 0 -1 -1 -2 -2 -3 -3 -3 -3 -3 -3 -4 -4 -4 -4 -4 -4 -4 -4 -4 -4 -3 -3 -3 -2 -2 -2 -1 -1
2 1 0 -0 -1 -2 -2 -3 -3 -3 -4 -4 -4 -4 -4 -4 -4 -5 -5 -5 -5 -5 -5 -4 -4 -4 -3 -3 -2 -2 -2 -2
1 1 -0 -1 -2 -2 -3 -3 -3 -3 -4 -4 -5 -5 -5 -5 -5 -5 -5 -6 -5 -5 -5 -5 -5 -4 -4 -4 -3 -3 -3 -3
1 0 -1 -1 -1 -2 -3 -3 -3 -4 -4 -5 -5 -5 -6 -6 -6 -6 -6 -6 -6 -6 -6 -6 -5 -5 -4 -5 -4 -4 -4 -4
0 -1 -1 -2 -2 -2 -3 -3 -3 -4 -4 -5 -5 -6 -6 -7 -7 -7 -7 -7 -7 -7 -7 -7 -6 -5 -5 -6 -5 -5 -5 -5
-1 -2 -2 -3 -3 -3 -3 -3 -4 -4 -5 -6 -6 -7 -7 -7 -7 -8 -8 -7 -8 -8 -8 -7 -7 -6 -6 -6 -6 -6 -6 -6

GFSFLT1_925_temp_126.txt.gz
Temp
10 10 10 10 9 8 6 6 6 7 8 10 11 12 11 11 11 10 10 10 10 12 14 14 13 15 16 16 15 16 16 17
10 9 9 9 9 8 7 6 4 5 7 8 9 10 11 11 10 9 9 9 9 10 12 12 13 14 15 15 16 17 17 17
10 10 9 8 8 7 6 5 4 4 5 5 7 8 10 10 9 9 8 8 8 8 7 8 8 9 10 12 14 15 17 17
10 9 9 9 8 8 7 6 4 3 4 5 6 8 9 9 8 8 7 7 6 5 5 6 6 7 8 8 9 10 14 17
9 9 8 7 6 6 6 5 5 4 4 4 5 8 9 7 7 6 6 5 4 4 4 4 5 5 6 7 8 8 9 11
8 6 5 4 4 3 3 4 4 3 4 2 4 4 5 6 6 5 4 4 4 3 3 3 4 4 4 5 5 6 7 9
6 5 5 5 5 5 4 4 3 3 2 2 2 2 2 3 3 3 3 3 3 3 2 2 3 3 3 4 4 5 6 7
6 6 6 5 5 4 4 4 4 3 2 1 1 1 2 2 1 1 1 1 1 1 1 1 2 2 2 3 3 4 5 6
6 5 5 4 4 3 2 3 3 2 2 1 1 1 1 1 -0 -0 -0 0 0 -0 0 0 1 1 1 2 2 4 5 5
5 5 4 3 3 1 1 1 2 1 1 0 0 -0 -0 -0 -0 -1 -1 -1 -1 -1 -1 -0 -0 -0 0 1 1 2 3 3
6 6 5 3 2 1 1 0 0 0 -0 -0 -0 -1 -1 -1 -1 -1 -1 -1 -2 -2 -2 -1 -1 -1 -1 -0 0 1 1 2
7 6 5 3 2 1 0 -0 -0 -1 -1 -1 -1 -1 -1 -1 -2 -2 -2 -2 -2 -2 -2 -2 -2 -1 -1 -1 -1 -0 -0 0
7 6 5 3 2 1 1 -0 -0 -1 -1 -1 -1 -2 -1 -1 -2 -2 -2 -2 -2 -2 -2 -2 -2 -2 -2 -1 -1 -1 -1 -1
7 6 4 3 1 1 0 -0 -1 -1 -1 -1 -1 -1 -1 -2 -2 -2 -3 -2 -2 -3 -3 -2 -2 -2 -2 -2 -2 -2 -2 -2
7 6 3 2 1 0 0 -0 -0 -0 -1 -1 -1 -2 -2 -2 -2 -2 -2 -2 -2 -3 -3 -2 -2 -2 -3 -3 -2 -2 -2 -2
6 5 2 1 0 0 0 -0 -0 -1 -1 -2 -2 -2 -2 -3 -3 -3 -3 -3 -3 -3 -2 -2 -2 -3 -5 -4 -2 -2 -2 -3
5 4 2 1 0 0 -0 -0 -0 -1 -2 -2 -3 -3 -3 -4 -3 -3 -3 -3 -4 -4 -4 -3 -3 -4 -5 -5 -4 -3 -4 -4
4 2 1 0 -0 -0 -0 -0 -1 -1 -2 -3 -3 -4 -5 -5 -5 -5 -5 -5 -5 -6 -5 -5 -5 -5 -6 -6 -5 -5 -5 -5
3 1 0 -1 -1 -1 -1 -1 -1 -2 -3 -4 -4 -5 -5 -6 -6 -6 -6 -6 -6 -7 -7 -6 -6 -7 -7 -7 -5 -5 -5 -6

GFSFLT1_925_temp_129.txt.gz
Temp
14 14 13 13 12 12 10 9 8 9 11 12 11 12 12 12 12 11 11 11 11 12 15 15 15 16 17 17 17 17 16 16
14 13 12 12 12 11 11 10 9 8 9 10 12 11 10 11 11 11 11 10 10 10 10 11 11 12 12 13 15 16 17 18
15 13 13 12 11 11 11 10 9 9 9 9 9 10 11 10 9 10 10 9 8 7 7 7 8 8 9 9 10 11 14 17
15 13 12 11 10 10 10 9 9 8 8 10 10 11 12 11 11 9 9 8 7 6 6 6 6 7 7 8 8 9 10 12
14 12 10 9 9 8 8 8 8 7 7 8 8 9 10 10 10 9 8 7 7 5 5 5 5 5 6 6 7 7 7 9
12 9 9 9 9 8 8 8 7 6 5 5 6 6 6 7 7 7 8 7 6 5 4 4 4 4 4 5 5 5 6 7
10 9 9 9 8 7 8 8 8 6 5 5 4 4 3 4 3 3 4 5 5 3 3 3 3 3 3 3 4 4 5 6
10 10 9 8 8 7 6 7 7 5 4 4 3 3 4 4 2 2 1 2 1 1 1 2 2 2 2 2 3 3 4 5
10 9 9 8 8 5 5 6 5 4 3 3 2 2 2 2 1 1 1 0 0 0 -0 0 0 1 1 1 2 3 3 3
9 9 8 8 7 4 3 4 4 3 2 2 2 1 1 1 1 0 0 -0 -0 -0 -0 -0 -0 0 1 1 1 2 1 2
10 10 9 7 5 4 2 2 2 2 2 1 1 1 1 0 0 -0 -0 -0 -1 -1 -1 -0 -0 0 -0 0 0 0 0 -0
10 10 9 7 5 4 2 2 2 1 1 1 1 1 1 0 -0 -1 -1 -1 -1 -1 -1 -1 -0 -0 -0 -0 -0 -1 -1 -1
12 10 9 7 5 4 3 2 2 1 1 1 1 1 1 1 -0 -1 -1 -2 -2 -2 -1 -1 -1 -1 -1 -1 -1 -1 -1 -2
11 10 8 7 4 3 2 2 2 2 3 2 2 2 1 1 1 0 -0 -0 -0 -1 -0 -0 -1 -2 -2 -1 -0 -0 -1 -2
11 10 8 6 4 3 3 2 2 2 2 2 1 1 1 0 -0 0 -0 -0 -0 -0 0 -0 -1 -2 -4 -2 -1 -1 -1 -2
11 9 7 4 3 3 3 3 2 2 2 1 0 0 -0 -1 -1 -1 -1 -1 -1 -2 -1 -1 -2 -3 -5 -4 -2 -1 -2 -2
10 9 6 4 3 3 2 3 2 1 1 0 -0 -1 -1 -2 -2 -2 -2 -2 -3 -3 -2 -3 -4 -4 -6 -5 -3 -3 -4 -4
9 7 5 4 3 2 2 2 2 1 0 -0 -1 -2 -3 -3 -3 -3 -4 -4 -4 -5 -5 -4 -5 -6 -7 -6 -4 -4 -4 -4
6 4 3 2 1 2 2 2 1 0 -1 -2 -3 -3 -3 -4 -4 -5 -5 -5 -5 -6 -6 -6 -6 -7 -7 -7 -5 -4 -5 -5